M I D A S
Marine Information and Data Acquisition System
Tripno 1822 of the Zeeleeuw from 2009-12-08 08:14:36 to 2009-12-08 17:35:47
Back to CruiseResearch ActivitiesStationsMapUnderway DataData graphs

EquipmentUnitsComment
TimeDGPSUTC
LatitudeDGPSDM.mWGS84
LongitudeDGPSDM.mWGS84
TemperatureSBE03/SBE38deg celciusITS90
ConductivitySBE21S/mITS90
SalinitySBE21 Practical Salinity Units
ChlorophylAChelsea fluorimeterg/lCalibrated in Aceton
Missing or incorrect values are displayed as -999
Sea surface data collected by the RV Zeeleeuw from 2009-12-08 08:37:15 to 2009-12-08 17:41:43
                                                                                    Next 1000 lines
Time Latitude Longitude Temperature Conductivity Salinity ChlorophylA
2009-12-08 08:37:25 51°13.661 2°55.956 16.7179 0.055792 0.323808 -0.373735
2009-12-08 08:37:30 51°13.662 2°55.954 16.7584 0.055792 0.323815 -0.373735
2009-12-08 08:37:34 51°13.663 2°55.952 16.7678 0.055792 0.323815 -0.373735
2009-12-08 08:37:39 51°13.664 2°55.949 16.7829 0.055792 0.323815 -0.373735
2009-12-08 08:37:44 51°13.665 2°55.945 16.7364 0.055792 0.323815 -0.373735
2009-12-08 08:37:49 51°13.666 2°55.941 16.7767 0.055792 0.323815 -0.373735
2009-12-08 08:37:54 51°13.667 2°55.935 16.7802 0.055792 0.323815 -0.373735
2009-12-08 08:38:01 51°13.67 2°55.926 16.8133 0.055792 0.323821 -0.373735
2009-12-08 08:38:06 51°13.671 2°55.92 16.8082 0.055792 0.323821 -0.373735
2009-12-08 08:38:12 51°13.673 2°55.911 16.8091 0.055792 0.323821 -0.373735
2009-12-08 08:38:17 51°13.675 2°55.903 16.8177 0.055792 0.323821 -0.373735
2009-12-08 08:38:22 51°13.677 2°55.895 16.8208 0.055792 0.323821 -0.373735
2009-12-08 08:38:27 51°13.679 2°55.888 16.8139 0.055792 0.323821 -0.373735
2009-12-08 08:38:32 51°13.68 2°55.88 16.7697 0.055792 0.323815 -0.373735
2009-12-08 08:38:37 51°13.682 2°55.872 16.8413 0.055792 0.323815 -0.373735
2009-12-08 08:38:42 51°13.684 2°55.864 16.8272 0.055792 0.323815 -0.373735
2009-12-08 08:38:47 51°13.685 2°55.857 16.8405 0.055792 0.323821 -0.373735
2009-12-08 08:38:52 51°13.687 2°55.849 16.8386 0.055792 0.323821 -0.373735
2009-12-08 08:38:57 51°13.689 2°55.842 16.8313 0.055792 0.323821 -0.373735
2009-12-08 08:39:02 51°13.69 2°55.835 16.8258 0.055792 0.323821 -0.373735
2009-12-08 08:39:07 51°13.692 2°55.827 16.8166 0.055792 0.323821 -0.373735
2009-12-08 08:39:12 51°13.693 2°55.82 16.8245 0.055792 0.323815 -0.373735
2009-12-08 08:39:17 51°13.695 2°55.813 16.8185 0.055792 0.323815 -0.373735
2009-12-08 08:39:22 51°13.696 2°55.806 16.8576 0.055792 0.323815 -0.373735
2009-12-08 08:39:27 51°13.697 2°55.799 16.8348 0.055792 0.323815 -0.373735
2009-12-08 08:39:32 51°13.698 2°55.792 16.8479 0.055792 0.323808 -0.373735
2009-12-08 08:39:37 51°13.698 2°55.785 16.8265 0.055792 0.323808 -0.373735
2009-12-08 08:39:42 51°13.699 2°55.779 16.8455 0.055792 0.323808 -0.373735
2009-12-08 08:39:46 51°13.699 2°55.774 16.8394 0.055792 0.323808 -0.373735
2009-12-08 08:39:51 51°13.7 2°55.768 16.837 0.055792 0.323808 -0.373735
2009-12-08 08:39:57 51°13.701 2°55.761 16.859 0.055792 0.323802 -0.373735
2009-12-08 08:40:02 51°13.702 2°55.758 16.8671 0.055792 0.323796 -0.373735
2009-12-08 08:40:07 51°13.703 2°55.757 16.868 0.055792 0.323796 -0.373735
2009-12-08 08:40:12 51°13.704 2°55.756 16.8592 0.055792 0.323796 -0.373735
2009-12-08 08:40:17 51°13.706 2°55.756 16.8505 0.055792 0.323796 -0.338911
2009-12-08 08:40:22 51°13.707 2°55.756 16.8464 0.055792 0.323796 -0.373735
2009-12-08 08:40:26 51°13.708 2°55.756 16.8149 0.055792 0.323802 -0.373735
2009-12-08 08:40:31 51°13.709 2°55.755 16.7559 0.055792 0.323821 -0.373735
2009-12-08 08:40:36 51°13.709 2°55.754 16.7978 0.055792 0.323821 -0.373735
2009-12-08 08:40:41 51°13.709 2°55.752 16.7292 0.055792 0.323821 -0.373735
2009-12-08 08:40:46 51°13.709 2°55.75 16.7786 0.055792 0.323833 -0.373735
2009-12-08 08:40:51 51°13.708 2°55.747 16.8092 0.055792 0.323827 -0.373735
2009-12-08 08:40:56 51°13.707 2°55.745 16.8053 0.055792 0.323821 -0.373735
2009-12-08 08:41:01 51°13.707 2°55.743 16.8413 0.055895 0.32443 -0.373735
2009-12-08 08:41:05 51°13.707 2°55.741 16.8495 0.055792 0.323802 -0.373735
2009-12-08 08:41:10 51°13.707 2°55.739 16.8652 0.055792 0.323802 -0.373735
2009-12-08 08:41:15 51°13.709 2°55.739 16.8685 0.055792 0.323796 -0.373735
2009-12-08 08:41:20 51°13.71 2°55.738 16.8722 0.055792 0.32379 -0.373735
2009-12-08 08:41:25 51°13.713 2°55.737 16.8638 0.055792 0.32379 -0.373735
2009-12-08 08:41:30 51°13.716 2°55.736 16.8651 0.055792 0.323796 -0.373735
2009-12-08 08:41:34 51°13.719 2°55.735 16.8699 0.055792 0.323796 -0.373735
2009-12-08 08:41:39 51°13.722 2°55.733 16.8698 0.055792 0.323802 -0.373735
2009-12-08 08:41:44 51°13.726 2°55.73 16.8668 0.055895 0.32443 -0.373735
2009-12-08 08:41:48 51°13.729 2°55.727 16.8652 0.055792 0.323827 -0.373735
2009-12-08 08:41:54 51°13.734 2°55.722 16.8633 0.055792 0.323827 -0.373735
2009-12-08 08:41:58 51°13.738 2°55.718 16.8432 0.055792 0.323827 -0.373735
2009-12-08 08:42:03 51°13.743 2°55.712 16.7918 0.055792 0.323827 -0.373735
2009-12-08 08:42:08 51°13.749 2°55.705 16.8199 0.055895 0.32443 -0.373735
2009-12-08 08:42:13 51°13.756 2°55.698 16.7997 0.055895 0.324424 -0.373735
2009-12-08 08:42:18 51°13.763 2°55.69 16.7397 0.055895 0.324405 -0.373735
2009-12-08 08:42:23 51°13.771 2°55.682 16.7369 0.055895 0.324405 -0.373735
2009-12-08 08:42:28 51°13.78 2°55.674 16.7718 0.055895 0.324399 -0.373735
2009-12-08 08:42:33 51°13.788 2°55.667 16.7614 0.055895 0.324405 -0.373735
2009-12-08 08:42:38 51°13.798 2°55.659 16.7736 0.055895 0.324405 -0.373735
2009-12-08 08:42:43 51°13.807 2°55.652 16.7624 0.055792 0.323796 -0.373735
2009-12-08 08:42:48 51°13.817 2°55.645 16.7912 0.055895 0.324418 -0.373735
2009-12-08 08:42:53 51°13.827 2°55.638 16.7791 0.055895 0.324424 -0.373735
2009-12-08 08:42:58 51°13.838 2°55.631 16.7628 0.055792 0.323808 -0.373735
2009-12-08 08:43:03 51°13.848 2°55.624 16.7923 0.055895 0.324424 -0.338911
2009-12-08 08:43:08 51°13.859 2°55.617 16.8274 0.055895 0.324424 -0.338911
2009-12-08 08:43:13 51°13.869 2°55.61 16.8077 0.055895 0.32443 -0.338911
2009-12-08 08:43:18 51°13.88 2°55.603 16.7923 0.055895 0.32443 -0.373735
2009-12-08 08:43:23 51°13.891 2°55.596 16.8142 0.055895 0.324436 -0.373735
2009-12-08 08:43:29 51°13.905 2°55.588 16.785 0.055895 0.324436 -0.373735
2009-12-08 08:43:33 51°13.914 2°55.582 16.8263 0.055895 0.324436 -0.373735
2009-12-08 08:43:38 51°13.925 2°55.576 16.8409 0.055895 0.324436 -0.373735
2009-12-08 08:43:43 51°13.936 2°55.569 16.8316 0.055895 0.324443 -0.373735
2009-12-08 08:43:49 51°13.949 2°55.561 16.8125 0.055792 0.323827 -0.373735
2009-12-08 08:43:53 51°13.958 2°55.555 16.7552 0.055895 0.324436 -0.373735
2009-12-08 08:43:58 51°13.97 2°55.549 16.8126 0.055792 0.323815 -0.373735
2009-12-08 08:44:03 51°13.981 2°55.542 16.8215 0.055792 0.323815 -0.373735
2009-12-08 08:44:08 51°13.992 2°55.536 16.8484 0.055895 0.32443 -0.373735
2009-12-08 08:44:13 51°14.003 2°55.529 16.8146 0.055895 0.324436 -0.373735
2009-12-08 08:44:18 51°14.014 2°55.522 16.8182 0.055895 0.32443 -0.373735
2009-12-08 08:44:23 51°14.026 2°55.515 16.862 0.055895 0.324436 -0.373735
2009-12-08 08:44:28 51°14.037 2°55.508 16.789 0.055895 0.324436 -0.373735
2009-12-08 08:44:33 51°14.048 2°55.5 16.8182 0.055895 0.324436 -0.373735
2009-12-08 08:44:38 51°14.059 2°55.492 16.8512 0.055895 0.324436 -0.373735
2009-12-08 08:44:43 51°14.07 2°55.485 16.8675 0.055895 0.324436 -0.373735
2009-12-08 08:44:48 51°14.082 2°55.478 16.833 0.055895 0.324443 -0.373735
2009-12-08 08:44:53 51°14.093 2°55.47 16.8235 0.055895 0.324443 -0.373735
2009-12-08 08:44:58 51°14.104 2°55.462 16.7924 0.055895 0.324443 -0.373735
2009-12-08 08:45:03 51°14.115 2°55.454 16.8056 0.055895 0.324443 -0.373735
2009-12-08 08:45:08 51°14.126 2°55.445 16.7512 0.055895 0.324436 -0.373735
2009-12-08 08:45:13 51°14.137 2°55.436 16.8 0.055895 0.324436 -0.373735
2009-12-08 08:45:18 51°14.147 2°55.427 16.8067 0.055895 0.324436 -0.373735
2009-12-08 08:45:23 51°14.158 2°55.417 16.7773 0.055895 0.32443 -0.373735
2009-12-08 08:45:29 51°14.171 2°55.406 16.7649 0.055895 0.324436 -0.373735
2009-12-08 08:45:33 51°14.179 2°55.397 16.6989 0.055895 0.324436 -0.373735
2009-12-08 08:45:38 51°14.188 2°55.386 16.749 0.055895 0.324436 -0.373735
2009-12-08 08:45:43 51°14.198 2°55.373 16.7406 0.055895 0.324436 -0.373735
2009-12-08 08:45:48 51°14.207 2°55.361 16.7375 0.055895 0.324436 -0.373735
2009-12-08 08:45:53 51°14.216 2°55.347 16.7491 0.055895 0.324436 -0.373735
2009-12-08 08:45:58 51°14.225 2°55.333 16.7023 0.055895 0.324436 -0.373735
2009-12-08 08:46:03 51°14.233 2°55.319 16.7241 0.055895 0.324436 -0.373735
2009-12-08 08:46:08 51°14.242 2°55.303 16.6834 0.055895 0.32443 -0.373735
2009-12-08 08:46:13 51°14.251 2°55.287 16.6796 0.055895 0.32443 -0.373735
2009-12-08 08:46:18 51°14.26 2°55.27 16.6538 0.055895 0.32443 -0.373735
2009-12-08 08:46:23 51°14.268 2°55.252 16.5588 0.055895 0.324424 -0.338911
2009-12-08 08:46:29 51°14.28 2°55.232 16.6899 0.055895 0.324418 -0.373735
2009-12-08 08:46:33 51°14.287 2°55.218 16.604 0.055895 0.324424 -0.373735
2009-12-08 08:46:38 51°14.296 2°55.2 16.6501 0.055895 0.324424 -0.373735
2009-12-08 08:46:43 51°14.305 2°55.181 16.6057 0.055895 0.32443 -0.373735
2009-12-08 08:46:48 51°14.313 2°55.161 16.601 0.055895 0.32443 -0.373735
2009-12-08 08:46:53 51°14.322 2°55.142 16.63 0.055895 0.324424 -0.373735
2009-12-08 08:46:58 51°14.331 2°55.123 16.6114 0.055895 0.324418 -0.373735
2009-12-08 08:47:03 51°14.34 2°55.104 16.6317 0.055895 0.324418 -0.373735
2009-12-08 08:47:08 51°14.349 2°55.084 16.5931 0.055895 0.32443 -0.373735
2009-12-08 08:47:13 51°14.358 2°55.064 16.5388 0.055895 0.324424 -0.373735
2009-12-08 08:47:18 51°14.367 2°55.045 16.6125 0.055895 0.324424 -0.373735
2009-12-08 08:47:23 51°14.376 2°55.025 16.5973 0.055895 0.32443 -0.373735
2009-12-08 08:47:28 51°14.385 2°55.006 16.5752 0.055895 0.324436 -0.373735
2009-12-08 08:47:33 51°14.394 2°54.986 16.5024 0.055895 0.324436 -0.373735
2009-12-08 08:47:38 51°14.404 2°54.968 16.5627 0.055895 0.324436 -0.373735
2009-12-08 08:47:43 51°14.415 2°54.95 16.528 0.055895 0.324443 -0.373735
2009-12-08 08:47:48 51°14.425 2°54.934 16.4893 0.055895 0.324443 -0.373735
2009-12-08 08:47:53 51°14.436 2°54.918 16.5653 0.055895 0.324455 -0.373735
2009-12-08 08:47:58 51°14.448 2°54.902 16.5065 0.055792 0.323839 -0.373735
2009-12-08 08:48:03 51°14.459 2°54.888 16.515 0.055792 0.323846 -0.373735
2009-12-08 08:48:09 51°14.474 2°54.873 16.5291 0.055792 0.323846 -0.373735
2009-12-08 08:48:14 51°14.486 2°54.861 16.4962 0.055792 0.323858 -0.373735
2009-12-08 08:48:18 51°14.496 2°54.853 16.469 0.055792 0.323852 -0.373735
2009-12-08 08:48:23 51°14.509 2°54.843 16.5343 0.055792 0.323858 -0.373735
2009-12-08 08:48:29 51°14.525 2°54.833 16.4975 0.055895 0.324474 -0.373735
2009-12-08 08:48:33 51°14.535 2°54.824 16.5368 0.055792 0.323827 -0.373735
2009-12-08 08:48:38 51°14.549 2°54.816 16.5251 0.055792 0.323827 -0.373735
2009-12-08 08:48:43 51°14.563 2°54.808 16.5315 0.055895 0.32443 -0.373735
2009-12-08 08:48:48 51°14.577 2°54.799 16.497 0.055895 0.32443 -0.373735
2009-12-08 08:48:53 51°14.59 2°54.789 16.5059 0.055792 0.323815 -0.373735
2009-12-08 08:48:58 51°14.603 2°54.778 16.5583 0.055895 0.324436 -0.373735
2009-12-08 08:49:03 51°14.616 2°54.767 16.4473 0.055895 0.324436 -0.373735
2009-12-08 08:49:08 51°14.628 2°54.754 16.5237 0.055895 0.324455 -0.373735
2009-12-08 08:49:13 51°14.64 2°54.741 16.4709 0.055792 0.323852 -0.373735
2009-12-08 08:49:18 51°14.652 2°54.728 16.4479 0.055895 0.324467 -0.373735
2009-12-08 08:49:23 51°14.663 2°54.714 16.4783 0.055895 0.324461 -0.373735
2009-12-08 08:49:28 51°14.675 2°54.701 16.4787 0.055895 0.324449 -0.338911
2009-12-08 08:49:33 51°14.688 2°54.687 16.4821 0.055895 0.324449 -0.338911
2009-12-08 08:49:38 51°14.7 2°54.675 16.4409 0.055895 0.324449 -0.373735
2009-12-08 08:49:44 51°14.715 2°54.661 16.4928 0.055895 0.32443 -0.373735
2009-12-08 08:49:49 51°14.728 2°54.65 16.4716 0.055895 0.324455 -0.373735
2009-12-08 08:49:54 51°14.74 2°54.637 16.4879 0.055895 0.32443 -0.373735
2009-12-08 08:49:58 51°14.75 2°54.628 16.4943 0.055895 0.324443 -0.373735
2009-12-08 08:50:03 51°14.762 2°54.616 16.455 0.055895 0.32443 -0.373735
2009-12-08 08:50:09 51°14.778 2°54.602 16.4509 0.055895 0.32443 -0.373735
2009-12-08 08:50:13 51°14.788 2°54.593 16.4912 0.055895 0.32443 -0.373735
2009-12-08 08:50:18 51°14.801 2°54.58 16.4894 0.055895 0.324436 -0.373735
2009-12-08 08:50:22 51°14.811 2°54.572 16.4899 0.055895 0.324449 -0.373735
2009-12-08 08:50:28 51°14.826 2°54.557 16.4761 0.055895 0.324436 -0.373735
2009-12-08 08:50:33 51°14.838 2°54.545 16.462 0.055895 0.324436 -0.373735
2009-12-08 08:50:38 51°14.851 2°54.533 16.4768 0.055895 0.324449 -0.373735
2009-12-08 08:50:43 51°14.864 2°54.521 16.4956 0.055895 0.324449 -0.373735
2009-12-08 08:50:48 51°14.877 2°54.509 16.4402 0.055895 0.324449 -0.373735
2009-12-08 08:50:53 51°14.89 2°54.497 16.4689 0.055895 0.324461 -0.373735
2009-12-08 08:50:58 51°14.902 2°54.486 16.4788 0.055895 0.324461 -0.373735
2009-12-08 08:51:03 51°14.915 2°54.474 16.4916 0.055895 0.324461 -0.373735
2009-12-08 08:51:08 51°14.928 2°54.462 16.4623 0.055895 0.324455 -0.373735
2009-12-08 08:51:14 51°14.943 2°54.449 16.4797 0.055895 0.324461 -0.373735
2009-12-08 08:51:18 51°14.953 2°54.441 16.4848 0.055895 0.324467 -0.373735
2009-12-08 08:51:23 51°14.965 2°54.428 16.4828 0.055895 0.324449 -0.373735
2009-12-08 08:51:28 51°14.978 2°54.417 16.4896 0.055895 0.324461 -0.373735
2009-12-08 08:51:33 51°14.99 2°54.406 16.4654 0.055895 0.324461 -0.373735
2009-12-08 08:51:38 51°15.003 2°54.394 16.486 0.055895 0.324449 -0.373735
2009-12-08 08:51:43 51°15.016 2°54.382 16.4868 0.055895 0.324443 -0.373735
2009-12-08 08:51:48 51°15.029 2°54.371 16.4705 0.055895 0.324443 -0.373735
2009-12-08 08:51:53 51°15.041 2°54.358 16.4682 0.055895 0.324449 -0.373735
2009-12-08 08:51:58 51°15.054 2°54.346 16.4612 0.055895 0.324455 -0.373735
2009-12-08 08:52:03 51°15.067 2°54.335 16.4861 0.055895 0.324461 -0.373735
2009-12-08 08:52:08 51°15.08 2°54.322 16.4803 0.055895 0.324461 -0.373735
2009-12-08 08:52:13 51°15.093 2°54.311 16.4643 0.055895 0.324474 -0.373735
2009-12-08 08:52:18 51°15.105 2°54.3 16.494 0.055895 0.324467 -0.373735
2009-12-08 08:52:24 51°15.121 2°54.288 16.4864 0.055895 0.324467 -0.373735
2009-12-08 08:52:29 51°15.133 2°54.279 16.4696 0.055895 0.324486 -0.373735
2009-12-08 08:52:35 51°15.147 2°54.266 16.474 0.055895 0.324486 -0.373735
2009-12-08 08:52:41 51°15.162 2°54.254 16.4672 0.055895 0.324467 -0.373735
2009-12-08 08:52:46 51°15.174 2°54.243 16.4846 0.055895 0.324461 -0.373735
2009-12-08 08:52:51 51°15.186 2°54.233 16.4943 0.055895 0.324461 -0.373735
2009-12-08 08:52:56 51°15.198 2°54.222 16.4693 0.055895 0.324455 -0.338911
2009-12-08 08:53:01 51°15.209 2°54.213 16.4758 0.055895 0.324461 -0.373735
2009-12-08 08:53:06 51°15.221 2°54.201 16.4617 0.055895 0.324461 -0.373735
2009-12-08 08:53:12 51°15.235 2°54.188 16.4822 0.055895 0.324455 -0.373735
2009-12-08 08:53:17 51°15.248 2°54.177 16.4816 0.055895 0.324455 -0.373735
2009-12-08 08:53:22 51°15.26 2°54.165 16.4642 0.055895 0.324455 -0.373735
2009-12-08 08:53:26 51°15.27 2°54.156 16.4877 0.055895 0.324455 -0.373735
2009-12-08 08:53:31 51°15.282 2°54.144 16.476 0.055895 0.324461 -0.373735
2009-12-08 08:53:36 51°15.295 2°54.131 16.4775 0.055895 0.324467 -0.373735
2009-12-08 08:53:41 51°15.307 2°54.119 16.484 0.055895 0.324467 -0.373735
2009-12-08 08:53:46 51°15.32 2°54.107 16.4701 0.055895 0.324461 -0.373735
2009-12-08 08:53:50 51°15.33 2°54.097 16.4851 0.055895 0.324467 -0.373735
2009-12-08 08:53:55 51°15.343 2°54.084 16.4849 0.055895 0.324467 -0.373735
2009-12-08 08:54:00 51°15.356 2°54.071 16.4884 0.055895 0.324461 -0.338911
2009-12-08 08:54:05 51°15.369 2°54.059 16.472 0.055895 0.324461 -0.338911
2009-12-08 08:54:10 51°15.382 2°54.047 16.4862 0.055895 0.324467 -0.373735
2009-12-08 08:54:14 51°15.392 2°54.037 16.4777 0.055895 0.324474 -0.373735
2009-12-08 08:54:20 51°15.407 2°54.023 16.4839 0.055895 0.324474 -0.373735
2009-12-08 08:54:25 51°15.419 2°54.01 16.4737 0.055895 0.32448 -0.338911
2009-12-08 08:54:30 51°15.431 2°53.997 16.4792 0.055895 0.324461 -0.373735
2009-12-08 08:54:35 51°15.443 2°53.985 16.484 0.055895 0.324461 -0.373735
2009-12-08 08:54:40 51°15.456 2°53.972 16.4906 0.055895 0.324467 -0.373735
2009-12-08 08:54:45 51°15.468 2°53.96 16.4823 0.055895 0.324461 -0.373735
2009-12-08 08:54:49 51°15.479 2°53.951 16.4891 0.055895 0.324474 -0.338911
2009-12-08 08:54:54 51°15.491 2°53.938 16.4866 0.055895 0.324467 -0.373735
2009-12-08 08:54:59 51°15.504 2°53.926 16.4823 0.055895 0.324467 -0.373735
2009-12-08 08:55:04 51°15.516 2°53.913 16.4875 0.055895 0.324467 -0.373735
2009-12-08 08:55:09 51°15.528 2°53.901 16.4855 0.055895 0.324467 -0.338911
2009-12-08 08:55:14 51°15.541 2°53.89 16.4935 0.055895 0.324467 -0.373735
2009-12-08 08:55:18 51°15.551 2°53.88 16.4937 0.055895 0.324492 -0.373735
2009-12-08 08:55:23 51°15.563 2°53.868 16.479 0.055895 0.324486 -0.373735
2009-12-08 08:55:28 51°15.576 2°53.856 16.4962 0.055895 0.324474 -0.373735
2009-12-08 08:55:33 51°15.588 2°53.845 16.4883 0.055895 0.324499 -0.338911
2009-12-08 08:55:39 51°15.602 2°53.831 16.4892 0.055895 0.324499 -0.338911
2009-12-08 08:55:45 51°15.617 2°53.818 16.4874 0.055895 0.32448 -0.373735
2009-12-08 08:55:50 51°15.629 2°53.805 16.493 0.055895 0.32448 -0.373735
2009-12-08 08:55:54 51°15.639 2°53.796 16.4937 0.055895 0.324474 -0.373735
2009-12-08 08:55:59 51°15.651 2°53.785 16.4956 0.055895 0.32448 -0.373735
2009-12-08 08:56:04 51°15.663 2°53.772 16.4965 0.055895 0.32448 -0.373735
2009-12-08 08:56:09 51°15.675 2°53.76 16.4916 0.055895 0.32448 -0.373735
2009-12-08 08:56:14 51°15.688 2°53.748 16.495 0.055895 0.324486 -0.373735
2009-12-08 08:56:19 51°15.7 2°53.736 16.4995 0.055895 0.324492 -0.373735
2009-12-08 08:56:23 51°15.71 2°53.726 16.4987 0.055895 0.324499 -0.373735
2009-12-08 08:56:28 51°15.723 2°53.713 16.4996 0.055895 0.324486 -0.373735
2009-12-08 08:56:33 51°15.735 2°53.701 16.497 0.055895 0.324486 -0.373735
2009-12-08 08:56:38 51°15.748 2°53.688 16.5044 0.055895 0.324492 -0.373735
2009-12-08 08:56:42 51°15.758 2°53.679 16.5036 0.055895 0.324492 -0.373735
2009-12-08 08:56:48 51°15.773 2°53.664 16.4996 0.055895 0.324492 -0.373735
2009-12-08 08:56:54 51°15.788 2°53.651 16.5046 0.055895 0.324499 -0.373735
2009-12-08 08:56:58 51°15.797 2°53.641 16.5029 0.055895 0.324499 -0.338911
2009-12-08 08:57:03 51°15.809 2°53.629 16.505 0.055895 0.324499 -0.338911
2009-12-08 08:57:08 51°15.822 2°53.616 16.5069 0.055895 0.324499 -0.373735
2009-12-08 08:57:13 51°15.834 2°53.604 16.5064 0.055895 0.324492 -0.373735
2009-12-08 08:57:18 51°15.846 2°53.593 16.5085 0.055895 0.324486 -0.338911
2009-12-08 08:57:23 51°15.859 2°53.581 16.5082 0.055895 0.324492 -0.373735
2009-12-08 08:57:28 51°15.871 2°53.569 16.5099 0.055895 0.324492 -0.373735
2009-12-08 08:57:33 51°15.884 2°53.557 16.5123 0.055895 0.324499 -0.373735
2009-12-08 08:57:38 51°15.897 2°53.546 16.5092 0.055895 0.324499 -0.373735
2009-12-08 08:57:43 51°15.909 2°53.533 16.5114 0.055895 0.324492 -0.373735
2009-12-08 08:57:48 51°15.922 2°53.522 16.5144 0.055895 0.324511 -0.373735
2009-12-08 08:57:54 51°15.936 2°53.508 16.5133 0.055895 0.324499 -0.373735
2009-12-08 08:57:59 51°15.948 2°53.498 16.5151 0.055895 0.324517 -0.373735
2009-12-08 08:58:04 51°15.96 2°53.484 16.5161 0.055895 0.324517 -0.373735
2009-12-08 08:58:09 51°15.972 2°53.473 16.5176 0.055895 0.324492 -0.373735
2009-12-08 08:58:13 51°15.983 2°53.464 16.5175 0.055895 0.324505 -0.373735
2009-12-08 08:58:18 51°15.994 2°53.451 16.52 0.055895 0.324486 -0.373735
2009-12-08 08:58:23 51°16.007 2°53.439 16.5193 0.055895 0.324499 -0.373735
2009-12-08 08:58:28 51°16.019 2°53.427 16.5226 0.055895 0.324492 -0.373735
2009-12-08 08:58:33 51°16.032 2°53.415 16.5229 0.055895 0.324492 -0.373735
2009-12-08 08:58:38 51°16.045 2°53.402 16.5252 0.055895 0.324492 -0.373735
2009-12-08 08:58:42 51°16.055 2°53.393 16.5241 0.055895 0.324511 -0.373735
2009-12-08 08:58:48 51°16.069 2°53.377 16.5262 0.055895 0.324499 -0.373735
2009-12-08 08:58:53 51°16.082 2°53.364 16.5273 0.055895 0.324499 -0.373735
2009-12-08 08:58:58 51°16.095 2°53.352 16.5264 0.055895 0.324499 -0.373735
2009-12-08 08:59:03 51°16.108 2°53.34 16.5291 0.055895 0.324492 -0.373735
2009-12-08 08:59:08 51°16.121 2°53.329 16.5295 0.055895 0.324492 -0.373735
2009-12-08 08:59:13 51°16.135 2°53.319 16.5293 0.055895 0.324523 -0.373735
2009-12-08 08:59:18 51°16.147 2°53.307 16.5314 0.055895 0.324492 -0.373735
2009-12-08 08:59:23 51°16.161 2°53.297 16.5329 0.055895 0.324511 -0.373735
2009-12-08 08:59:28 51°16.174 2°53.285 16.5329 0.055895 0.324492 -0.373735
2009-12-08 08:59:33 51°16.187 2°53.274 16.5347 0.055895 0.324492 -0.373735
2009-12-08 08:59:38 51°16.201 2°53.264 16.5361 0.055895 0.324492 -0.373735
2009-12-08 08:59:42 51°16.212 2°53.255 16.5368 0.055895 0.324505 -0.338911
2009-12-08 08:59:48 51°16.228 2°53.244 16.5362 0.055895 0.324505 -0.373735
2009-12-08 08:59:53 51°16.241 2°53.235 16.5368 0.055895 0.324523 -0.373735
2009-12-08 08:59:59 51°16.257 2°53.224 16.5364 0.055895 0.324523 -0.373735
2009-12-08 09:00:03 51°16.268 2°53.216 16.5382 0.055895 0.324523 -0.373735
2009-12-08 09:00:09 51°16.284 2°53.205 16.5391 0.055895 0.324511 -0.373735
2009-12-08 09:00:13 51°16.294 2°53.195 16.5396 0.055895 0.324517 -0.373735
2009-12-08 09:00:18 51°16.308 2°53.186 16.5403 0.055895 0.324492 -0.373735
2009-12-08 09:00:23 51°16.321 2°53.177 16.5405 0.055895 0.324505 -0.373735
2009-12-08 09:00:28 51°16.334 2°53.166 16.5428 0.055895 0.324486 -0.373735
2009-12-08 09:00:33 51°16.348 2°53.156 16.5435 0.055895 0.324486 -0.373735
2009-12-08 09:00:38 51°16.362 2°53.146 16.5429 0.055895 0.324492 -0.338911
2009-12-08 09:00:43 51°16.375 2°53.136 16.5444 0.055895 0.324492 -0.338911
2009-12-08 09:00:48 51°16.389 2°53.127 16.5459 0.055895 0.324505 -0.373735
2009-12-08 09:00:53 51°16.403 2°53.117 16.5469 0.055895 0.324511 -0.373735
2009-12-08 09:00:58 51°16.416 2°53.107 16.5489 0.055895 0.324517 -0.373735
2009-12-08 09:01:03 51°16.43 2°53.098 16.5468 0.055895 0.324511 -0.373735
2009-12-08 09:01:08 51°16.443 2°53.088 16.5486 0.055895 0.324511 -0.373735
2009-12-08 09:01:13 51°16.457 2°53.079 16.5491 0.055895 0.324511 -0.338911
2009-12-08 09:01:18 51°16.471 2°53.07 16.5507 0.055895 0.324523 -0.373735
2009-12-08 09:01:22 51°16.482 2°53.062 16.5525 0.055895 0.324517 -0.373735
2009-12-08 09:01:28 51°16.498 2°53.052 16.5526 0.055895 0.324523 -0.373735
2009-12-08 09:01:33 51°16.512 2°53.041 16.5528 0.055895 0.324523 -0.373735
2009-12-08 09:01:38 51°16.525 2°53.031 16.555 0.055895 0.324511 -0.373735
2009-12-08 09:01:43 51°16.539 2°53.022 16.5537 0.055895 0.324517 -0.373735
2009-12-08 09:01:48 51°16.553 2°53.012 16.5556 0.055895 0.324505 -0.373735
2009-12-08 09:01:53 51°16.567 2°53.002 16.5547 0.055895 0.324511 -0.373735
2009-12-08 09:01:58 51°16.58 2°52.992 16.5551 0.055895 0.324505 -0.373735
2009-12-08 09:02:03 51°16.594 2°52.982 16.5572 0.055895 0.324505 -0.373735
2009-12-08 09:02:08 51°16.608 2°52.973 16.5588 0.055895 0.324511 -0.373735
2009-12-08 09:02:13 51°16.622 2°52.962 16.5597 0.055895 0.324517 -0.338911
2009-12-08 09:02:18 51°16.635 2°52.953 16.5592 0.055895 0.324517 -0.373735
2009-12-08 09:02:22 51°16.646 2°52.944 16.5612 0.055895 0.324511 -0.338911
2009-12-08 09:02:28 51°16.662 2°52.933 16.5606 0.055895 0.324523 -0.373735
2009-12-08 09:02:33 51°16.676 2°52.923 16.5632 0.055895 0.324517 -0.373735
2009-12-08 09:02:38 51°16.69 2°52.914 16.5627 0.055895 0.324517 -0.373735
2009-12-08 09:02:42 51°16.701 2°52.906 16.5631 0.055895 0.324523 -0.373735
2009-12-08 09:02:48 51°16.717 2°52.895 16.5633 0.055895 0.324523 -0.373735
2009-12-08 09:02:53 51°16.73 2°52.885 16.5641 0.055895 0.324517 -0.373735
2009-12-08 09:02:58 51°16.743 2°52.875 16.5647 0.055895 0.324523 -0.373735
2009-12-08 09:03:03 51°16.757 2°52.865 16.5657 0.055895 0.324517 -0.373735
2009-12-08 09:03:08 51°16.77 2°52.855 16.5656 0.055895 0.324517 -0.373735
2009-12-08 09:03:13 51°16.784 2°52.847 16.5663 0.055895 0.324511 -0.373735
2009-12-08 09:03:18 51°16.798 2°52.836 16.5665 0.055895 0.324523 -0.373735
2009-12-08 09:03:23 51°16.811 2°52.827 16.5673 0.055895 0.324523 -0.338911
2009-12-08 09:03:29 51°16.828 2°52.817 16.5656 0.055895 0.324517 -0.373735
2009-12-08 09:03:34 51°16.84 2°52.808 16.5658 0.055895 0.324517 -0.373735
2009-12-08 09:03:40 51°16.856 2°52.798 16.5698 0.055895 0.32453 -0.373735
2009-12-08 09:03:45 51°16.869 2°52.789 16.5695 0.055895 0.324511 -0.373735
2009-12-08 09:03:50 51°16.882 2°52.78 16.5716 0.055895 0.324511 -0.373735
2009-12-08 09:03:55 51°16.895 2°52.772 16.5723 0.055895 0.324517 -0.338911
2009-12-08 09:04:00 51°16.908 2°52.763 16.573 0.055895 0.324523 -0.338911
2009-12-08 09:04:05 51°16.921 2°52.753 16.5721 0.055895 0.324523 -0.338911
2009-12-08 09:04:10 51°16.934 2°52.744 16.5743 0.055895 0.324517 -0.373735
2009-12-08 09:04:14 51°16.945 2°52.738 16.574 0.055895 0.324511 -0.373735
2009-12-08 09:04:19 51°16.959 2°52.729 16.5767 0.055895 0.324517 -0.373735
2009-12-08 09:04:24 51°16.973 2°52.722 16.5773 0.055895 0.324517 -0.373735
2009-12-08 09:04:29 51°16.987 2°52.715 16.5752 0.055895 0.324517 -0.373735
2009-12-08 09:04:34 51°17 2°52.707 16.5774 0.055895 0.324523 -0.373735
2009-12-08 09:04:39 51°17.014 2°52.701 16.58 0.055895 0.324523 -0.373735
2009-12-08 09:04:44 51°17.028 2°52.693 16.5827 0.055895 0.324523 -0.373735
2009-12-08 09:04:49 51°17.042 2°52.686 16.5798 0.055895 0.324517 -0.338911
2009-12-08 09:04:54 51°17.057 2°52.678 16.5808 0.055895 0.32453 -0.373735
2009-12-08 09:04:58 51°17.068 2°52.672 16.5846 0.055895 0.324523 -0.373735
2009-12-08 09:05:03 51°17.082 2°52.665 16.5825 0.055895 0.324523 -0.373735
2009-12-08 09:05:08 51°17.097 2°52.658 16.5851 0.055895 0.324542 -0.338911
2009-12-08 09:05:13 51°17.111 2°52.65 16.5859 0.055895 0.32453 -0.373735
2009-12-08 09:05:18 51°17.125 2°52.643 16.5872 0.055895 0.324542 -0.373735
2009-12-08 09:05:23 51°17.14 2°52.636 16.5888 0.055895 0.32453 -0.373735
2009-12-08 09:05:28 51°17.154 2°52.629 16.5902 0.055895 0.324536 -0.373735
2009-12-08 09:05:33 51°17.169 2°52.624 16.5908 0.055895 0.324536 -0.373735
2009-12-08 09:05:38 51°17.184 2°52.616 16.5912 0.055895 0.32453 -0.373735
2009-12-08 09:05:43 51°17.198 2°52.61 16.593 0.055895 0.324517 -0.373735
2009-12-08 09:05:48 51°17.213 2°52.604 16.5947 0.055895 0.324517 -0.338911
2009-12-08 09:05:53 51°17.228 2°52.599 16.5943 0.055895 0.324523 -0.338911
2009-12-08 09:05:58 51°17.243 2°52.593 16.5945 0.055895 0.324517 -0.373735
2009-12-08 09:06:03 51°17.257 2°52.588 16.5953 0.055895 0.324517 -0.373735
2009-12-08 09:06:09 51°17.274 2°52.582 16.5989 0.055895 0.324536 -0.338911
2009-12-08 09:06:13 51°17.286 2°52.576 16.5984 0.055895 0.324523 -0.373735
2009-12-08 09:06:18 51°17.301 2°52.573 16.5981 0.055895 0.324536 -0.373735
2009-12-08 09:06:23 51°17.316 2°52.568 16.6006 0.055895 0.32453 -0.373735
2009-12-08 09:06:28 51°17.33 2°52.563 16.6014 0.055895 0.324548 -0.373735
2009-12-08 09:06:33 51°17.345 2°52.558 16.6031 0.055895 0.324523 -0.373735
2009-12-08 09:06:38 51°17.36 2°52.553 16.6034 0.055895 0.324523 -0.373735
2009-12-08 09:06:43 51°17.375 2°52.549 16.6052 0.055895 0.324548 -0.373735
2009-12-08 09:06:48 51°17.39 2°52.545 16.6007 0.055895 0.324536 -0.373735
2009-12-08 09:06:53 51°17.405 2°52.544 16.6041 0.055895 0.324573 -0.373735
2009-12-08 09:06:58 51°17.42 2°52.54 16.6045 0.055895 0.324561 -0.338911
2009-12-08 09:07:02 51°17.431 2°52.539 16.6042 0.055895 0.324561 -0.338911
2009-12-08 09:07:08 51°17.449 2°52.538 16.6052 0.055895 0.324573 -0.373735
2009-12-08 09:07:13 51°17.464 2°52.536 16.6108 0.055895 0.324573 -0.338911
2009-12-08 09:07:18 51°17.479 2°52.536 16.6095 0.055895 0.324542 -0.338911
2009-12-08 09:07:23 51°17.495 2°52.537 16.6112 0.055895 0.324542 -0.373735
2009-12-08 09:07:28 51°17.51 2°52.536 16.6136 0.055895 0.324511 -0.338911
2009-12-08 09:07:33 51°17.525 2°52.536 16.6121 0.055895 0.324511 -0.338911
2009-12-08 09:07:38 51°17.541 2°52.536 16.6138 0.055895 0.324523 -0.373735
2009-12-08 09:07:43 51°17.556 2°52.535 16.6131 0.055895 0.324505 -0.338911
2009-12-08 09:07:48 51°17.572 2°52.537 16.6166 0.055895 0.324536 -0.338911
2009-12-08 09:07:53 51°17.587 2°52.535 16.6163 0.055895 0.324536 -0.373735
2009-12-08 09:07:58 51°17.602 2°52.536 16.6184 0.055895 0.324567 -0.373735
2009-12-08 09:08:02 51°17.614 2°52.538 16.6187 0.055895 0.324598 -0.373735
2009-12-08 09:08:08 51°17.633 2°52.539 16.6183 0.055895 0.324598 -0.373735
2009-12-08 09:08:13 51°17.648 2°52.537 16.6195 0.055895 0.324586 -0.373735
2009-12-08 09:08:18 51°17.663 2°52.539 16.6212 0.055895 0.324586 -0.373735
2009-12-08 09:08:23 51°17.678 2°52.539 16.6218 0.055895 0.324586 -0.373735
2009-12-08 09:08:28 51°17.694 2°52.539 16.6212 0.055895 0.324567 -0.338911
2009-12-08 09:08:33 51°17.709 2°52.54 16.6239 0.055895 0.324567 -0.338911
2009-12-08 09:08:38 51°17.724 2°52.54 16.6253 0.055895 0.324567 -0.373735
2009-12-08 09:08:43 51°17.74 2°52.541 16.6201 0.055895 0.324536 -0.338911
2009-12-08 09:08:48 51°17.755 2°52.543 16.6266 0.055895 0.324542 -0.373735
2009-12-08 09:08:53 51°17.77 2°52.542 16.623 0.055895 0.324523 -0.373735
2009-12-08 09:08:58 51°17.785 2°52.544 16.6247 0.055895 0.324536 -0.373735
2009-12-08 09:09:03 51°17.8 2°52.544 16.6274 0.055895 0.324536 -0.373735
2009-12-08 09:09:08 51°17.816 2°52.546 16.6208 0.055895 0.324536 -0.373735
2009-12-08 09:09:13 51°17.831 2°52.548 16.6265 0.055895 0.324548 -0.373735
2009-12-08 09:09:19 51°17.848 2°52.55 16.6287 0.055895 0.324555 -0.373735
2009-12-08 09:09:24 51°17.863 2°52.551 16.6308 0.055895 0.324561 -0.373735
2009-12-08 09:09:29 51°17.877 2°52.55 16.6321 0.055895 0.324542 -0.373735
2009-12-08 09:09:34 51°17.892 2°52.551 16.6276 0.055895 0.324542 -0.373735
2009-12-08 09:09:39 51°17.907 2°52.55 16.6303 0.055895 0.324542 -0.373735
2009-12-08 09:09:44 51°17.922 2°52.55 16.6296 0.055895 0.324523 -0.373735
2009-12-08 09:09:49 51°17.937 2°52.549 16.6349 0.055895 0.324542 -0.373735
2009-12-08 09:09:53 51°17.949 2°52.548 16.6252 0.055895 0.324542 -0.338911
2009-12-08 09:09:58 51°17.964 2°52.549 16.6339 0.055895 0.324548 -0.338911
2009-12-08 09:10:03 51°17.979 2°52.548 16.6325 0.055895 0.324542 -0.373735
2009-12-08 09:10:08 51°17.994 2°52.548 16.6324 0.055895 0.324542 -0.373735
2009-12-08 09:10:13 51°18.009 2°52.547 16.6361 0.055895 0.324548 -0.373735
2009-12-08 09:10:18 51°18.024 2°52.548 16.6349 0.055895 0.324555 -0.338911
2009-12-08 09:10:22 51°18.036 2°52.548 16.6342 0.055895 0.324555 -0.338911
2009-12-08 09:10:28 51°18.054 2°52.55 16.638 0.055895 0.324555 -0.373735
2009-12-08 09:10:33 51°18.069 2°52.549 16.6413 0.055895 0.324555 -0.373735
2009-12-08 09:10:38 51°18.083 2°52.55 16.6419 0.055895 0.324555 -0.338911
2009-12-08 09:10:43 51°18.098 2°52.551 16.6364 0.055895 0.324555 -0.338911
2009-12-08 09:10:49 51°18.115 2°52.552 16.6333 0.055895 0.324561 -0.373735
2009-12-08 09:10:53 51°18.127 2°52.552 16.6332 0.055895 0.324548 -0.373735
2009-12-08 09:10:58 51°18.141 2°52.554 16.6426 0.055895 0.324542 -0.338911
2009-12-08 09:11:03 51°18.156 2°52.552 16.6393 0.055895 0.324542 -0.338911
2009-12-08 09:11:08 51°18.171 2°52.555 16.6425 0.055895 0.324548 -0.373735
2009-12-08 09:11:13 51°18.185 2°52.551 16.644 0.055895 0.324542 -0.373735
2009-12-08 09:11:18 51°18.2 2°52.554 16.645 0.055895 0.324561 -0.338911
2009-12-08 09:11:22 51°18.212 2°52.551 16.6458 0.055895 0.324542 -0.373735
2009-12-08 09:11:28 51°18.23 2°52.552 16.6483 0.055895 0.324561 -0.338911
2009-12-08 09:11:33 51°18.245 2°52.55 16.6457 0.055895 0.324573 -0.373735
2009-12-08 09:11:38 51°18.261 2°52.552 16.6471 0.055895 0.324573 -0.373735
2009-12-08 09:11:43 51°18.276 2°52.549 16.6487 0.055895 0.324561 -0.338911
2009-12-08 09:11:48 51°18.291 2°52.551 16.6462 0.055895 0.324592 -0.373735
2009-12-08 09:11:53 51°18.306 2°52.55 16.6537 0.055895 0.324561 -0.373735
2009-12-08 09:11:58 51°18.321 2°52.55 16.6449 0.055895 0.324561 -0.373735
2009-12-08 09:12:03 51°18.336 2°52.551 16.6555 0.055895 0.324561 -0.373735
2009-12-08 09:12:08 51°18.351 2°52.549 16.6539 0.055895 0.324567 -0.373735
2009-12-08 09:12:13 51°18.366 2°52.551 16.6519 0.055895 0.324567 -0.338911
2009-12-08 09:12:18 51°18.381 2°52.55 16.6525 0.055895 0.324573 -0.373735
2009-12-08 09:12:22 51°18.393 2°52.549 16.657 0.055895 0.324586 -0.373735
2009-12-08 09:12:28 51°18.411 2°52.549 16.6597 0.055895 0.324548 -0.373735
2009-12-08 09:12:33 51°18.426 2°52.548 16.6555 0.055895 0.324548 -0.373735
2009-12-08 09:12:38 51°18.441 2°52.551 16.6612 0.055895 0.324573 -0.373735
2009-12-08 09:12:43 51°18.456 2°52.547 16.6593 0.055895 0.324542 -0.338911
2009-12-08 09:12:48 51°18.472 2°52.55 16.6648 0.055895 0.324573 -0.373735
2009-12-08 09:12:53 51°18.487 2°52.547 16.661 0.055895 0.324561 -0.373735
2009-12-08 09:12:58 51°18.502 2°52.549 16.6646 0.055895 0.324579 -0.373735
2009-12-08 09:13:03 51°18.518 2°52.547 16.662 0.055895 0.324579 -0.373735
2009-12-08 09:13:08 51°18.533 2°52.548 16.6637 0.055895 0.324579 -0.373735
2009-12-08 09:13:13 51°18.548 2°52.546 16.665 0.055895 0.324573 -0.338911
2009-12-08 09:13:18 51°18.564 2°52.547 16.6648 0.055895 0.324579 -0.338911
2009-12-08 09:13:23 51°18.579 2°52.546 16.6696 0.055895 0.324567 -0.373735
2009-12-08 09:13:28 51°18.594 2°52.546 16.6678 0.055895 0.324579 -0.338911
2009-12-08 09:13:33 51°18.61 2°52.544 16.6642 0.055895 0.324573 -0.338911
2009-12-08 09:13:38 51°18.625 2°52.546 16.6661 0.055895 0.324573 -0.338911
2009-12-08 09:13:44 51°18.643 2°52.545 16.6664 0.055895 0.324567 -0.338911
2009-12-08 09:13:49 51°18.658 2°52.545 16.6714 0.055895 0.324548 -0.338911
2009-12-08 09:13:53 51°18.67 2°52.545 16.6698 0.055895 0.324548 -0.373735
2009-12-08 09:13:58 51°18.685 2°52.545 16.6701 0.055895 0.324555 -0.373735
2009-12-08 09:14:03 51°18.7 2°52.543 16.6712 0.055895 0.324555 -0.373735
2009-12-08 09:14:08 51°18.715 2°52.542 16.6729 0.055895 0.324555 -0.338911
2009-12-08 09:14:13 51°18.73 2°52.543 16.674 0.055895 0.324567 -0.373735
2009-12-08 09:14:18 51°18.745 2°52.542 16.6759 0.055895 0.324567 -0.338911
2009-12-08 09:14:22 51°18.757 2°52.543 16.6737 0.055895 0.324586 -0.373735
2009-12-08 09:14:28 51°18.775 2°52.542 16.6773 0.055895 0.324592 -0.373735
2009-12-08 09:14:33 51°18.79 2°52.542 16.6692 0.055895 0.324592 -0.373735
2009-12-08 09:14:38 51°18.805 2°52.543 16.678 0.055895 0.324586 -0.338911
2009-12-08 09:14:43 51°18.82 2°52.542 16.6728 0.055895 0.324567 -0.373735
2009-12-08 09:14:48 51°18.835 2°52.543 16.6756 0.055895 0.324561 -0.373735
2009-12-08 09:14:53 51°18.85 2°52.543 16.676 0.055895 0.324561 -0.338911
2009-12-08 09:14:58 51°18.865 2°52.542 16.6798 0.055895 0.324561 -0.338911
2009-12-08 09:15:03 51°18.88 2°52.543 16.6829 0.055895 0.324561 -0.338911
2009-12-08 09:15:08 51°18.895 2°52.542 16.6785 0.055895 0.324561 -0.373735
2009-12-08 09:15:13 51°18.911 2°52.543 16.6774 0.055895 0.324573 -0.373735
2009-12-08 09:15:18 51°18.926 2°52.542 16.6828 0.055895 0.324567 -0.338911
2009-12-08 09:15:23 51°18.941 2°52.542 16.6837 0.055895 0.324561 -0.338911
2009-12-08 09:15:29 51°18.959 2°52.54 16.6851 0.055895 0.324567 -0.373735
2009-12-08 09:15:33 51°18.972 2°52.54 16.6871 0.055895 0.324555 -0.373735
2009-12-08 09:15:38 51°18.987 2°52.538 16.6842 0.055895 0.324555 -0.373735
2009-12-08 09:15:43 51°19.002 2°52.539 16.6858 0.055895 0.324567 -0.338911
2009-12-08 09:15:48 51°19.018 2°52.538 16.6891 0.055895 0.324573 -0.373735
2009-12-08 09:15:53 51°19.033 2°52.536 16.6906 0.055895 0.324561 -0.338911
2009-12-08 09:15:58 51°19.048 2°52.537 16.6922 0.055895 0.324573 -0.373735
2009-12-08 09:16:03 51°19.064 2°52.536 16.6909 0.055895 0.324573 -0.373735
2009-12-08 09:16:08 51°19.08 2°52.535 16.6933 0.055895 0.324567 -0.373735
2009-12-08 09:16:13 51°19.095 2°52.535 16.6912 0.055895 0.324573 -0.373735
2009-12-08 09:16:18 51°19.11 2°52.535 16.6963 0.055895 0.324567 -0.373735
2009-12-08 09:16:23 51°19.125 2°52.534 16.6918 0.055895 0.324555 -0.338911
2009-12-08 09:16:28 51°19.14 2°52.536 16.6972 0.055895 0.324567 -0.373735
2009-12-08 09:16:33 51°19.155 2°52.533 16.6953 0.055895 0.324567 -0.373735
2009-12-08 09:16:38 51°19.17 2°52.533 16.6909 0.055895 0.324548 -0.373735
2009-12-08 09:16:43 51°19.185 2°52.534 16.7013 0.055895 0.324586 -0.373735
2009-12-08 09:16:48 51°19.2 2°52.531 16.6998 0.055895 0.324555 -0.338911
2009-12-08 09:16:53 51°19.214 2°52.533 16.7002 0.055895 0.324586 -0.338911
2009-12-08 09:16:58 51°19.229 2°52.53 16.6989 0.055895 0.324555 -0.338911
2009-12-08 09:17:03 51°19.244 2°52.532 16.7001 0.055895 0.324586 -0.373735
2009-12-08 09:17:08 51°19.259 2°52.532 16.701 0.055895 0.324586 -0.373735
2009-12-08 09:17:13 51°19.274 2°52.531 16.6989 0.055895 0.324573 -0.373735
2009-12-08 09:17:18 51°19.289 2°52.532 16.7028 0.055895 0.324579 -0.338911
2009-12-08 09:17:23 51°19.304 2°52.532 16.7024 0.055895 0.324573 -0.373735
2009-12-08 09:17:28 51°19.319 2°52.532 16.6999 0.055895 0.324592 -0.373735
2009-12-08 09:17:33 51°19.335 2°52.532 16.705 0.055895 0.324592 -0.373735
2009-12-08 09:17:38 51°19.35 2°52.53 16.7061 0.055895 0.324573 -0.338911
2009-12-08 09:17:42 51°19.362 2°52.53 16.705 0.055895 0.324586 -0.338911
2009-12-08 09:17:48 51°19.38 2°52.529 16.7009 0.055895 0.324579 -0.373735
2009-12-08 09:17:53 51°19.396 2°52.529 16.7074 0.055895 0.324573 -0.338911
2009-12-08 09:17:58 51°19.411 2°52.529 16.7078 0.055895 0.324573 -0.373735
2009-12-08 09:18:03 51°19.426 2°52.527 16.7084 0.055895 0.324573 -0.373735
2009-12-08 09:18:08 51°19.441 2°52.527 16.7099 0.055895 0.324561 -0.373735
2009-12-08 09:18:13 51°19.457 2°52.526 16.7076 0.055895 0.324561 -0.373735
2009-12-08 09:18:18 51°19.472 2°52.525 16.7122 0.055895 0.324561 -0.373735
2009-12-08 09:18:23 51°19.487 2°52.527 16.7001 0.055895 0.324567 -0.338911
2009-12-08 09:18:29 51°19.505 2°52.528 16.7061 0.055895 0.324573 -0.373735
2009-12-08 09:18:34 51°19.519 2°52.527 16.711 0.055895 0.324573 -0.373735
2009-12-08 09:18:40 51°19.537 2°52.526 16.7143 0.055895 0.324573 -0.373735
2009-12-08 09:18:45 51°19.552 2°52.526 16.7119 0.055895 0.324548 -0.338911
2009-12-08 09:18:50 51°19.567 2°52.526 16.717 0.055895 0.324555 -0.373735
2009-12-08 09:18:54 51°19.578 2°52.524 16.7111 0.055895 0.324555 -0.373735
2009-12-08 09:18:59 51°19.594 2°52.524 16.7115 0.055895 0.324555 -0.373735
2009-12-08 09:19:04 51°19.608 2°52.523 16.7179 0.055895 0.324561 -0.373735
2009-12-08 09:19:09 51°19.624 2°52.523 16.7166 0.055895 0.324561 -0.373735
2009-12-08 09:19:14 51°19.639 2°52.521 16.719 0.055895 0.324561 -0.373735
2009-12-08 09:19:18 51°19.651 2°52.521 16.719 0.055895 0.324567 -0.338911
2009-12-08 09:19:23 51°19.666 2°52.522 16.7169 0.055895 0.324573 -0.338911
2009-12-08 09:19:28 51°19.682 2°52.52 16.7224 0.055895 0.324586 -0.373735
2009-12-08 09:19:33 51°19.697 2°52.521 16.7224 0.055895 0.324586 -0.373735
2009-12-08 09:19:38 51°19.712 2°52.519 16.7126 0.055895 0.324567 -0.338911
2009-12-08 09:19:43 51°19.727 2°52.52 16.7202 0.055895 0.324573 -0.338911
2009-12-08 09:19:48 51°19.742 2°52.518 16.7199 0.055895 0.324567 -0.338911
2009-12-08 09:19:53 51°19.757 2°52.518 16.7119 0.055895 0.324561 -0.373735
2009-12-08 09:19:58 51°19.772 2°52.518 16.7278 0.055895 0.324567 -0.338911
2009-12-08 09:20:02 51°19.784 2°52.517 16.719 0.055895 0.324567 -0.338911
2009-12-08 09:20:08 51°19.803 2°52.518 16.7306 0.055895 0.324586 -0.373735
2009-12-08 09:20:13 51°19.817 2°52.516 16.7245 0.055895 0.324573 -0.373735
2009-12-08 09:20:18 51°19.832 2°52.518 16.7326 0.055895 0.324604 -0.338911
2009-12-08 09:20:23 51°19.847 2°52.514 16.7287 0.055895 0.324579 -0.373735
2009-12-08 09:20:28 51°19.863 2°52.516 16.7309 0.055895 0.324611 -0.338911
2009-12-08 09:20:33 51°19.878 2°52.513 16.7364 0.055895 0.324611 -0.338911
2009-12-08 09:20:38 51°19.893 2°52.512 16.724 0.055895 0.324592 -0.373735
2009-12-08 09:20:43 51°19.908 2°52.513 16.7342 0.055895 0.324629 -0.373735
2009-12-08 09:20:48 51°19.923 2°52.511 16.7336 0.055895 0.324598 -0.373735
2009-12-08 09:20:53 51°19.938 2°52.512 16.7353 0.055895 0.324636 -0.373735
2009-12-08 09:20:58 51°19.953 2°52.51 16.7346 0.055895 0.324617 -0.338911
2009-12-08 09:21:03 51°19.968 2°52.51 16.7374 0.055895 0.324617 -0.338911
2009-12-08 09:21:09 51°19.986 2°52.509 16.7307 0.055895 0.324623 -0.373735
2009-12-08 09:21:13 51°19.997 2°52.506 16.7289 0.055895 0.324648 -0.373735
2009-12-08 09:21:18 51°20.01 2°52.5 16.7261 0.055895 0.324642 -0.373735
2009-12-08 09:21:23 51°20.024 2°52.494 16.7394 0.055895 0.324611 -0.338911
2009-12-08 09:21:29 51°20.039 2°52.483 16.7342 0.055895 0.324592 -0.338911
2009-12-08 09:21:34 51°20.053 2°52.476 16.7296 0.055895 0.324592 -0.338911
2009-12-08 09:21:38 51°20.063 2°52.467 16.7437 0.055895 0.324579 -0.338911
2009-12-08 09:21:43 51°20.076 2°52.459 16.7437 0.055895 0.324561 -0.338911
2009-12-08 09:21:49 51°20.092 2°52.448 16.7288 0.055895 0.324567 -0.338911
2009-12-08 09:21:54 51°20.104 2°52.44 16.7338 0.055895 0.324573 -0.338911
2009-12-08 09:22:00 51°20.118 2°52.426 16.7363 0.055895 0.324567 -0.338911
2009-12-08 09:22:05 51°20.13 2°52.415 16.7414 0.055895 0.324567 -0.338911
2009-12-08 09:22:10 51°20.141 2°52.403 16.7411 0.055895 0.324573 -0.373735
2009-12-08 09:22:15 51°20.151 2°52.388 16.742 0.055895 0.324567 -0.338911
2009-12-08 09:22:20 51°20.162 2°52.374 16.7399 0.055895 0.324567 -0.373735
2009-12-08 09:22:25 51°20.172 2°52.36 16.7507 0.055895 0.324567 -0.338911
2009-12-08 09:22:30 51°20.182 2°52.345 16.7435 0.055895 0.324561 -0.373735
2009-12-08 09:22:36 51°20.193 2°52.327 16.7506 0.055895 0.324561 -0.338911
2009-12-08 09:22:41 51°20.202 2°52.312 16.7509 0.055895 0.324561 -0.338911
2009-12-08 09:22:46 51°20.212 2°52.297 16.7484 0.055895 0.324548 -0.373735
2009-12-08 09:22:51 51°20.221 2°52.281 16.7525 0.055895 0.324548 -0.373735
2009-12-08 09:22:56 51°20.23 2°52.265 16.7513 0.055895 0.324555 -0.338911
2009-12-08 09:23:01 51°20.24 2°52.249 16.7497 0.055895 0.324548 -0.338911
2009-12-08 09:23:06 51°20.249 2°52.232 16.7501 0.055895 0.324548 -0.338911
2009-12-08 09:23:10 51°20.256 2°52.219 16.7533 0.055895 0.324561 -0.338911
2009-12-08 09:23:15 51°20.266 2°52.202 16.7601 0.055895 0.324567 -0.338911
2009-12-08 09:23:20 51°20.275 2°52.185 16.7516 0.055895 0.324567 -0.338911
2009-12-08 09:23:25 51°20.284 2°52.169 16.7541 0.055895 0.324573 -0.338911
2009-12-08 09:23:30 51°20.293 2°52.152 16.7613 0.055895 0.324573 -0.338911
2009-12-08 09:23:35 51°20.302 2°52.135 16.7653 0.055895 0.324573 -0.338911
2009-12-08 09:23:40 51°20.311 2°52.118 16.7606 0.055895 0.324573 -0.338911
2009-12-08 09:23:45 51°20.32 2°52.101 16.7616 0.055895 0.324567 -0.373735
2009-12-08 09:23:49 51°20.328 2°52.086 16.7599 0.055895 0.324561 -0.338911
2009-12-08 09:23:54 51°20.337 2°52.07 16.7653 0.055895 0.324548 -0.373735
2009-12-08 09:23:59 51°20.345 2°52.053 16.7685 0.055895 0.324567 -0.373735
2009-12-08 09:24:05 51°20.356 2°52.033 16.7691 0.055895 0.324567 -0.373735
2009-12-08 09:24:10 51°20.365 2°52.015 16.765 0.055895 0.324561 -0.338911
2009-12-08 09:24:15 51°20.375 2°51.998 16.7688 0.055895 0.324555 -0.373735
2009-12-08 09:24:20 51°20.384 2°51.981 16.7675 0.055895 0.324567 -0.373735
2009-12-08 09:24:24 51°20.391 2°51.966 16.7709 0.055895 0.324561 -0.373735
2009-12-08 09:24:29 51°20.401 2°51.948 16.7747 0.055895 0.324567 -0.373735
2009-12-08 09:24:34 51°20.411 2°51.931 16.7741 0.055895 0.324567 -0.373735
2009-12-08 09:24:39 51°20.42 2°51.913 16.7761 0.055895 0.324567 -0.338911
2009-12-08 09:24:44 51°20.43 2°51.896 16.7787 0.055895 0.324561 -0.338911
2009-12-08 09:24:49 51°20.441 2°51.879 16.7773 0.055895 0.324567 -0.338911
2009-12-08 09:24:54 51°20.451 2°51.863 16.7765 0.055895 0.324561 -0.373735
2009-12-08 09:24:58 51°20.46 2°51.85 16.7812 0.055895 0.324567 -0.338911
2009-12-08 09:25:03 51°20.471 2°51.834 16.7805 0.055895 0.324567 -0.338911
2009-12-08 09:25:08 51°20.482 2°51.818 16.7812 0.055895 0.324567 -0.373735
2009-12-08 09:25:13 51°20.493 2°51.802 16.7808 0.055895 0.324561 -0.338911
2009-12-08 09:25:18 51°20.504 2°51.787 16.7851 0.055895 0.324573 -0.338911
2009-12-08 09:25:23 51°20.515 2°51.771 16.7821 0.055895 0.324567 -0.373735
2009-12-08 09:25:28 51°20.526 2°51.756 16.7805 0.055895 0.324573 -0.338911
2009-12-08 09:25:33 51°20.538 2°51.741 16.7836 0.055895 0.324573 -0.338911
2009-12-08 09:25:38 51°20.549 2°51.725 16.7769 0.055895 0.324579 -0.373735
2009-12-08 09:25:43 51°20.56 2°51.711 16.7841 0.055895 0.324592 -0.373735
2009-12-08 09:25:48 51°20.571 2°51.697 16.7824 0.055895 0.324579 -0.338911
2009-12-08 09:25:53 51°20.582 2°51.683 16.7883 0.055895 0.324573 -0.373735
2009-12-08 09:25:58 51°20.593 2°51.668 16.7874 0.055895 0.324567 -0.338911
2009-12-08 09:26:03 51°20.604 2°51.653 16.7907 0.055895 0.324567 -0.338911
2009-12-08 09:26:08 51°20.615 2°51.639 16.7922 0.055895 0.324567 -0.338911
2009-12-08 09:26:13 51°20.627 2°51.624 16.7828 0.055895 0.324561 -0.373735
2009-12-08 09:26:18 51°20.639 2°51.612 16.7951 0.055895 0.324579 -0.338911
2009-12-08 09:26:23 51°20.65 2°51.598 16.7925 0.055895 0.324579 -0.338911
2009-12-08 09:26:29 51°20.665 2°51.583 16.7927 0.055895 0.324592 -0.338911
2009-12-08 09:26:33 51°20.676 2°51.573 16.7935 0.055895 0.324592 -0.338911
2009-12-08 09:26:38 51°20.688 2°51.56 16.7975 0.055895 0.324598 -0.338911
2009-12-08 09:26:43 51°20.701 2°51.549 16.7988 0.055895 0.324592 -0.338911
2009-12-08 09:26:48 51°20.714 2°51.537 16.7995 0.055895 0.324592 -0.338911
2009-12-08 09:26:53 51°20.727 2°51.525 16.7963 0.055895 0.324586 -0.338911
2009-12-08 09:26:58 51°20.741 2°51.516 16.8027 0.055895 0.324598 -0.373735
2009-12-08 09:27:03 51°20.754 2°51.504 16.8019 0.055895 0.324598 -0.373735
2009-12-08 09:27:08 51°20.767 2°51.494 16.8038 0.055895 0.324586 -0.373735
2009-12-08 09:27:13 51°20.781 2°51.485 16.8059 0.055895 0.324573 -0.373735
2009-12-08 09:27:18 51°20.795 2°51.475 16.8065 0.055895 0.324586 -0.338911
2009-12-08 09:27:22 51°20.805 2°51.467 16.8004 0.055895 0.324592 -0.338911
2009-12-08 09:27:28 51°20.822 2°51.456 16.8011 0.055895 0.324586 -0.373735
2009-12-08 09:27:33 51°20.835 2°51.447 16.8018 0.055895 0.324586 -0.373735
2009-12-08 09:27:38 51°20.848 2°51.437 16.8108 0.055895 0.324592 -0.338911
2009-12-08 09:27:43 51°20.861 2°51.426 16.8073 0.055895 0.324579 -0.338911
2009-12-08 09:27:48 51°20.875 2°51.417 16.8073 0.055895 0.324586 -0.373735
2009-12-08 09:27:53 51°20.888 2°51.407 16.8101 0.055895 0.324592 -0.373735
2009-12-08 09:27:58 51°20.901 2°51.396 16.8085 0.055895 0.324579 -0.338911
2009-12-08 09:28:02 51°20.912 2°51.389 16.8153 0.055895 0.324598 -0.373735
2009-12-08 09:28:08 51°20.928 2°51.377 16.817 0.055895 0.324598 -0.373735
2009-12-08 09:28:13 51°20.942 2°51.369 16.8106 0.055895 0.324586 -0.338911
2009-12-08 09:28:18 51°20.956 2°51.362 16.815 0.055895 0.324586 -0.373735
2009-12-08 09:28:23 51°20.97 2°51.356 16.8166 0.055895 0.324598 -0.338911
2009-12-08 09:28:28 51°20.984 2°51.349 16.8128 0.055895 0.324579 -0.338911
2009-12-08 09:28:33 51°20.998 2°51.344 16.8159 0.055895 0.324579 -0.338911
2009-12-08 09:28:38 51°21.012 2°51.338 16.8213 0.055895 0.324598 -0.338911
2009-12-08 09:28:43 51°21.026 2°51.334 16.8228 0.055895 0.324586 -0.373735
2009-12-08 09:28:48 51°21.04 2°51.329 16.8175 0.055895 0.324592 -0.373735
2009-12-08 09:28:53 51°21.055 2°51.325 16.821 0.055895 0.324604 -0.373735
2009-12-08 09:28:58 51°21.069 2°51.321 16.8196 0.055895 0.324598 -0.338911
2009-12-08 09:29:03 51°21.084 2°51.317 16.8242 0.055895 0.324598 -0.338911
2009-12-08 09:29:08 51°21.098 2°51.312 16.8269 0.055895 0.324586 -0.338911
2009-12-08 09:29:13 51°21.112 2°51.309 16.8226 0.055895 0.324586 -0.338911
2009-12-08 09:29:18 51°21.127 2°51.305 16.8243 0.055895 0.324598 -0.338911
2009-12-08 09:29:23 51°21.142 2°51.301 16.8289 0.055895 0.324592 -0.373735
2009-12-08 09:29:28 51°21.156 2°51.297 16.8303 0.055895 0.324598 -0.373735
2009-12-08 09:29:33 51°21.171 2°51.293 16.8257 0.055895 0.324598 -0.373735
2009-12-08 09:29:38 51°21.186 2°51.29 16.8267 0.055895 0.324598 -0.373735
2009-12-08 09:29:43 51°21.2 2°51.286 16.8301 0.055895 0.324592 -0.373735
2009-12-08 09:29:48 51°21.215 2°51.283 16.8291 0.055895 0.324598 -0.338911
2009-12-08 09:29:53 51°21.23 2°51.28 16.8327 0.055895 0.324592 -0.373735
2009-12-08 09:29:58 51°21.244 2°51.275 16.8337 0.055895 0.324592 -0.373735
2009-12-08 09:30:02 51°21.256 2°51.272 16.8316 0.055895 0.324592 -0.373735
2009-12-08 09:30:08 51°21.274 2°51.267 16.8375 0.055895 0.324598 -0.373735
2009-12-08 09:30:13 51°21.288 2°51.265 16.8333 0.055895 0.324598 -0.373735
2009-12-08 09:30:18 51°21.302 2°51.263 16.8362 0.055895 0.324586 -0.373735
2009-12-08 09:30:23 51°21.316 2°51.262 16.8362 0.055895 0.324592 -0.338911
2009-12-08 09:30:28 51°21.331 2°51.259 16.8375 0.055895 0.324592 -0.338911
2009-12-08 09:30:33 51°21.346 2°51.258 16.8393 0.055895 0.324592 -0.338911
2009-12-08 09:30:38 51°21.36 2°51.257 16.8415 0.055895 0.324592 -0.373735
2009-12-08 09:30:43 51°21.375 2°51.256 16.8437 0.055895 0.324592 -0.373735
2009-12-08 09:30:48 51°21.39 2°51.255 16.8431 0.055895 0.324592 -0.338911
2009-12-08 09:30:53 51°21.405 2°51.255 16.8438 0.055895 0.324604 -0.338911
2009-12-08 09:30:58 51°21.42 2°51.254 16.8456 0.055895 0.324592 -0.373735
2009-12-08 09:31:03 51°21.434 2°51.254 16.8462 0.055895 0.324592 -0.373735
2009-12-08 09:31:08 51°21.449 2°51.255 16.8478 0.055895 0.324611 -0.373735
2009-12-08 09:31:13 51°21.463 2°51.254 16.8491 0.055895 0.324592 -0.338911
2009-12-08 09:31:18 51°21.478 2°51.255 16.8439 0.055895 0.324598 -0.373735
2009-12-08 09:31:23 51°21.492 2°51.257 16.8495 0.055895 0.324611 -0.373735
2009-12-08 09:31:28 51°21.507 2°51.256 16.8478 0.055895 0.324598 -0.373735
2009-12-08 09:31:33 51°21.521 2°51.258 16.8506 0.055895 0.324623 -0.338911
2009-12-08 09:31:38 51°21.535 2°51.258 16.8523 0.055895 0.324623 -0.338911
2009-12-08 09:31:43 51°21.55 2°51.258 16.8506 0.055895 0.324611 -0.338911
2009-12-08 09:31:48 51°21.564 2°51.259 16.8521 0.055895 0.324629 -0.338911
2009-12-08 09:31:53 51°21.579 2°51.259 16.8521 0.055895 0.324629 -0.373735
2009-12-08 09:31:58 51°21.593 2°51.26 16.8503 0.055895 0.324623 -0.338911
2009-12-08 09:32:03 51°21.607 2°51.26 16.8557 0.055895 0.324623 -0.338911
2009-12-08 09:32:08 51°21.622 2°51.259 16.8534 0.055895 0.324611 -0.338911
2009-12-08 09:32:13 51°21.636 2°51.26 16.8564 0.055895 0.324598 -0.373735
2009-12-08 09:32:18 51°21.651 2°51.259 16.8589 0.055895 0.324604 -0.373735
2009-12-08 09:32:22 51°21.663 2°51.258 16.855 0.055895 0.324611 -0.338911
2009-12-08 09:32:28 51°21.68 2°51.259 16.8566 0.055895 0.324604 -0.338911
2009-12-08 09:32:33 51°21.695 2°51.259 16.8557 0.055895 0.324604 -0.338911
2009-12-08 09:32:38 51°21.71 2°51.26 16.8551 0.055895 0.324604 -0.338911
2009-12-08 09:32:43 51°21.724 2°51.26 16.8604 0.055895 0.324623 -0.338911
2009-12-08 09:32:48 51°21.738 2°51.261 16.8609 0.055895 0.324623 -0.338911
2009-12-08 09:32:53 51°21.753 2°51.261 16.8616 0.055895 0.324617 -0.338911
2009-12-08 09:32:58 51°21.767 2°51.26 16.8622 0.055895 0.324598 -0.373735
2009-12-08 09:33:02 51°21.779 2°51.261 16.8628 0.055895 0.324598 -0.373735
2009-12-08 09:33:08 51°21.797 2°51.261 16.8652 0.055895 0.324604 -0.373735
2009-12-08 09:33:13 51°21.812 2°51.26 16.866 0.055895 0.324592 -0.373735
2009-12-08 09:33:18 51°21.827 2°51.261 16.866 0.055895 0.324598 -0.338911
2009-12-08 09:33:23 51°21.842 2°51.261 16.8652 0.055895 0.324611 -0.338911
2009-12-08 09:33:28 51°21.857 2°51.26 16.8609 0.055895 0.324598 -0.338911
2009-12-08 09:33:33 51°21.871 2°51.262 16.8695 0.055895 0.324598 -0.338911
2009-12-08 09:33:38 51°21.886 2°51.261 16.8686 0.055895 0.324604 -0.373735
2009-12-08 09:33:43 51°21.901 2°51.262 16.8703 0.055895 0.324586 -0.373735
2009-12-08 09:33:48 51°21.915 2°51.262 16.8713 0.055895 0.324586 -0.338911
2009-12-08 09:33:53 51°21.93 2°51.262 16.8685 0.055895 0.324598 -0.338911
2009-12-08 09:33:58 51°21.944 2°51.264 16.871 0.055895 0.324579 -0.373735
2009-12-08 09:34:03 51°21.959 2°51.265 16.869 0.055895 0.324579 -0.373735
2009-12-08 09:34:08 51°21.973 2°51.268 16.8737 0.055895 0.324567 -0.338911
2009-12-08 09:34:13 51°21.987 2°51.272 16.8729 0.055895 0.324567 -0.338911
2009-12-08 09:34:18 51°22.001 2°51.278 16.8756 0.055895 0.324586 -0.338911
2009-12-08 09:34:23 51°22.015 2°51.281 16.875 0.055895 0.324586 -0.338911
2009-12-08 09:34:28 51°22.029 2°51.288 16.8773 0.055895 0.324604 -0.338911
2009-12-08 09:34:33 51°22.044 2°51.294 16.8792 0.055895 0.324604 -0.338911
2009-12-08 09:34:38 51°22.058 2°51.301 16.8788 0.055895 0.324604 -0.338911
2009-12-08 09:34:43 51°22.072 2°51.308 16.881 0.055895 0.324604 -0.338911
2009-12-08 09:34:48 51°22.086 2°51.316 16.8804 0.055895 0.324611 -0.338911
2009-12-08 09:34:53 51°22.1 2°51.324 16.8799 0.055895 0.324611 -0.338911
2009-12-08 09:34:58 51°22.114 2°51.331 16.8808 0.055895 0.324617 -0.373735
2009-12-08 09:35:03 51°22.128 2°51.341 16.8816 0.055895 0.324611 -0.338911
2009-12-08 09:35:08 51°22.142 2°51.348 16.883 0.055895 0.324611 -0.338911
2009-12-08 09:35:13 51°22.156 2°51.356 16.884 0.055895 0.324611 -0.338911
2009-12-08 09:35:18 51°22.17 2°51.366 16.8845 0.055895 0.324604 -0.373735
2009-12-08 09:35:23 51°22.184 2°51.374 16.8842 0.055895 0.324604 -0.338911
2009-12-08 09:35:28 51°22.198 2°51.383 16.8884 0.055895 0.324623 -0.338911
2009-12-08 09:35:33 51°22.212 2°51.39 16.8905 0.055895 0.324623 -0.338911
2009-12-08 09:35:38 51°22.227 2°51.399 16.8882 0.055895 0.324604 -0.338911
2009-12-08 09:35:43 51°22.24 2°51.409 16.8918 0.055895 0.324617 -0.338911
2009-12-08 09:35:48 51°22.254 2°51.416 16.892 0.055895 0.324611 -0.338911
2009-12-08 09:35:53 51°22.268 2°51.426 16.8942 0.055895 0.324629 -0.338911
2009-12-08 09:35:58 51°22.283 2°51.432 16.8941 0.055895 0.324636 -0.338911
2009-12-08 09:36:02 51°22.293 2°51.442 16.8963 0.055895 0.324636 -0.338911
2009-12-08 09:36:08 51°22.31 2°51.449 16.8942 0.055895 0.324636 -0.338911
2009-12-08 09:36:13 51°22.323 2°51.46 16.8945 0.055895 0.324629 -0.338911
2009-12-08 09:36:18 51°22.337 2°51.467 16.8967 0.055895 0.324623 -0.338911
2009-12-08 09:36:23 51°22.351 2°51.476 16.9001 0.055895 0.324617 -0.338911
2009-12-08 09:36:28 51°22.365 2°51.482 16.8944 0.055895 0.324642 -0.373735
2009-12-08 09:36:33 51°22.378 2°51.493 16.9008 0.055895 0.324642 -0.373735
2009-12-08 09:36:38 51°22.393 2°51.497 16.9015 0.055895 0.324636 -0.338911
2009-12-08 09:36:43 51°22.407 2°51.507 16.8993 0.055895 0.324654 -0.338911
2009-12-08 09:36:48 51°22.421 2°51.515 16.9042 0.055895 0.324667 -0.338911
2009-12-08 09:36:53 51°22.435 2°51.521 16.9002 0.055895 0.324648 -0.338911
2009-12-08 09:36:58 51°22.448 2°51.531 16.903 0.055895 0.324673 -0.338911
2009-12-08 09:37:02 51°22.46 2°51.535 16.9049 0.055895 0.324673 -0.338911
2009-12-08 09:37:08 51°22.476 2°51.545 16.9027 0.055895 0.324642 -0.338911
2009-12-08 09:37:13 51°22.49 2°51.554 16.9073 0.055895 0.324673 -0.373735
2009-12-08 09:37:18 51°22.504 2°51.559 16.9059 0.055895 0.324629 -0.338911
2009-12-08 09:37:23 51°22.518 2°51.569 16.9102 0.055895 0.324654 -0.338911
2009-12-08 09:37:28 51°22.532 2°51.573 16.9106 0.055895 0.324629 -0.338911
2009-12-08 09:37:33 51°22.546 2°51.584 16.9054 0.055895 0.324629 -0.338911
2009-12-08 09:37:38 51°22.56 2°51.591 16.9108 0.055895 0.324654 -0.338911
2009-12-08 09:37:43 51°22.574 2°51.597 16.9115 0.055895 0.324617 -0.338911
2009-12-08 09:37:48 51°22.588 2°51.606 16.9129 0.055895 0.324617 -0.373735
2009-12-08 09:37:53 51°22.602 2°51.612 16.9123 0.055895 0.324611 -0.373735
2009-12-08 09:37:58 51°22.616 2°51.622 16.9137 0.055895 0.324623 -0.338911
2009-12-08 09:38:02 51°22.627 2°51.626 16.9144 0.055895 0.324623 -0.338911
2009-12-08 09:38:08 51°22.644 2°51.636 16.9173 0.055895 0.324629 -0.338911
2009-12-08 09:38:13 51°22.658 2°51.642 16.9173 0.055895 0.324636 -0.338911
2009-12-08 09:38:18 51°22.672 2°51.651 16.9196 0.055895 0.324648 -0.373735
2009-12-08 09:38:23 51°22.686 2°51.657 16.9195 0.055895 0.324648 -0.373735
2009-12-08 09:38:28 51°22.7 2°51.665 16.9211 0.055895 0.324667 -0.373735
2009-12-08 09:38:33 51°22.715 2°51.672 16.9223 0.055895 0.324667 -0.373735
2009-12-08 09:38:38 51°22.729 2°51.679 16.9236 0.055895 0.32466 -0.373735
2009-12-08 09:38:43 51°22.743 2°51.688 16.9243 0.055895 0.324673 -0.338911
2009-12-08 09:38:48 51°22.757 2°51.694 16.9251 0.055895 0.32466 -0.338911
2009-12-08 09:38:53 51°22.771 2°51.704 16.9257 0.055895 0.324667 -0.373735
2009-12-08 09:38:58 51°22.786 2°51.709 16.9267 0.055895 0.324636 -0.338911
2009-12-08 09:39:03 51°22.8 2°51.717 16.9271 0.055895 0.324636 -0.338911
2009-12-08 09:39:08 51°22.814 2°51.724 16.9288 0.055895 0.32466 -0.338911
2009-12-08 09:39:13 51°22.828 2°51.731 16.9274 0.055895 0.324636 -0.338911
2009-12-08 09:39:18 51°22.842 2°51.738 16.9299 0.055895 0.324648 -0.338911
2009-12-08 09:39:23 51°22.857 2°51.745 16.9311 0.055895 0.32466 -0.338911
2009-12-08 09:39:28 51°22.871 2°51.752 16.9322 0.055895 0.32466 -0.373735
2009-12-08 09:39:33 51°22.885 2°51.758 16.9334 0.055895 0.32466 -0.373735
2009-12-08 09:39:38 51°22.899 2°51.767 16.9342 0.055895 0.324673 -0.338911
2009-12-08 09:39:43 51°22.914 2°51.774 16.9357 0.055895 0.324673 -0.338911
2009-12-08 09:39:48 51°22.928 2°51.78 16.9365 0.055895 0.32466 -0.338911
2009-12-08 09:39:53 51°22.942 2°51.789 16.9373 0.055895 0.324685 -0.373735
2009-12-08 09:39:58 51°22.957 2°51.795 16.9387 0.055895 0.324648 -0.338911
2009-12-08 09:40:02 51°22.968 2°51.802 16.9388 0.055895 0.324648 -0.338911
2009-12-08 09:40:08 51°22.985 2°51.811 16.9408 0.055895 0.324685 -0.338911
2009-12-08 09:40:13 51°22.999 2°51.817 16.9414 0.055895 0.32466 -0.373735
2009-12-08 09:40:18 51°23.012 2°51.827 16.9422 0.055895 0.324685 -0.338911
2009-12-08 09:40:22 51°23.024 2°51.83 16.9434 0.055895 0.324673 -0.338911
2009-12-08 09:40:28 51°23.04 2°51.841 16.9433 0.055895 0.324679 -0.338911
2009-12-08 09:40:33 51°23.054 2°51.846 16.9458 0.055895 0.324667 -0.338911
2009-12-08 09:40:38 51°23.068 2°51.855 16.9423 0.055895 0.324667 -0.338911
2009-12-08 09:40:43 51°23.081 2°51.866 16.9455 0.055895 0.324679 -0.338911
2009-12-08 09:40:48 51°23.096 2°51.871 16.9462 0.055895 0.324685 -0.373735
2009-12-08 09:40:53 51°23.109 2°51.88 16.9477 0.055895 0.324679 -0.373735
2009-12-08 09:40:58 51°23.123 2°51.886 16.9485 0.055895 0.324685 -0.338911
2009-12-08 09:41:02 51°23.135 2°51.893 16.9503 0.055895 0.324685 -0.338911
2009-12-08 09:41:08 51°23.151 2°51.901 16.9509 0.055895 0.324673 -0.373735
2009-12-08 09:41:13 51°23.166 2°51.909 16.9515 0.055895 0.324685 -0.373735
2009-12-08 09:41:18 51°23.18 2°51.917 16.9533 0.055895 0.324673 -0.338911
2009-12-08 09:41:23 51°23.194 2°51.924 16.9499 0.055895 0.324685 -0.373735
2009-12-08 09:41:28 51°23.207 2°51.933 16.9524 0.055895 0.324679 -0.338911
2009-12-08 09:41:33 51°23.222 2°51.937 16.9499 0.055895 0.324679 -0.338911
2009-12-08 09:41:38 51°23.235 2°51.947 16.9544 0.055895 0.324698 -0.338911
2009-12-08 09:41:42 51°23.247 2°51.951 16.9546 0.055895 0.324685 -0.338911
2009-12-08 09:41:48 51°23.262 2°51.963 16.9549 0.055895 0.324717 -0.338911
2009-12-08 09:41:53 51°23.276 2°51.97 16.9574 0.055895 0.324704 -0.338911
2009-12-08 09:41:58 51°23.29 2°51.977 16.9572 0.055895 0.32471 -0.338911
2009-12-08 09:42:03 51°23.304 2°51.986 16.9583 0.055895 0.32471 -0.338911
2009-12-08 09:42:08 51°23.318 2°51.992 16.9589 0.055895 0.324679 -0.338911
2009-12-08 09:42:13 51°23.331 2°52.002 16.9604 0.055895 0.32471 -0.338911
2009-12-08 09:42:18 51°23.346 2°52.005 16.9618 0.055895 0.324654 -0.338911
2009-12-08 09:42:22 51°23.357 2°52.014 16.9622 0.055895 0.324685 -0.338911
2009-12-08 09:42:28 51°23.374 2°52.023 16.964 0.055895 0.32466 -0.338911
2009-12-08 09:42:33 51°23.388 2°52.029 16.964 0.055895 0.32466 -0.338911
2009-12-08 09:42:38 51°23.402 2°52.039 16.9654 0.055895 0.324685 -0.338911
2009-12-08 09:42:43 51°23.416 2°52.044 16.9657 0.055895 0.324685 -0.373735
2009-12-08 09:42:48 51°23.43 2°52.05 16.9651 0.055895 0.324692 -0.338911
2009-12-08 09:42:53 51°23.444 2°52.059 16.9669 0.055895 0.324704 -0.373735
2009-12-08 09:42:58 51°23.459 2°52.064 16.9662 0.055895 0.32466 -0.373735
2009-12-08 09:43:03 51°23.472 2°52.075 16.9616 0.055895 0.32466 -0.373735
2009-12-08 09:43:08 51°23.486 2°52.082 16.969 0.055895 0.324698 -0.373735
2009-12-08 09:43:13 51°23.5 2°52.087 16.9665 0.055895 0.324679 -0.373735
2009-12-08 09:43:18 51°23.513 2°52.097 16.9706 0.055895 0.32471 -0.373735
2009-12-08 09:43:23 51°23.528 2°52.101 16.9706 0.055895 0.324698 -0.338911
2009-12-08 09:43:28 51°23.541 2°52.11 16.9713 0.055895 0.324704 -0.338911
2009-12-08 09:43:33 51°23.556 2°52.116 16.9704 0.055895 0.324704 -0.338911
2009-12-08 09:43:38 51°23.569 2°52.124 16.9736 0.055895 0.32471 -0.338911
2009-12-08 09:43:43 51°23.583 2°52.129 16.9721 0.055895 0.324692 -0.338911
2009-12-08 09:43:48 51°23.597 2°52.138 16.9756 0.055895 0.324704 -0.373735
2009-12-08 09:43:53 51°23.611 2°52.143 16.9736 0.055895 0.324679 -0.338911
2009-12-08 09:43:58 51°23.625 2°52.152 16.9768 0.055895 0.324704 -0.338911
2009-12-08 09:44:02 51°23.637 2°52.157 16.9782 0.055895 0.324679 -0.373735
2009-12-08 09:44:08 51°23.653 2°52.164 16.977 0.055895 0.324679 -0.373735
2009-12-08 09:44:13 51°23.667 2°52.176 16.9792 0.055895 0.324723 -0.338911
2009-12-08 09:44:18 51°23.682 2°52.179 16.9794 0.055895 0.324679 -0.338911
2009-12-08 09:44:23 51°23.695 2°52.19 16.981 0.055895 0.324717 -0.338911
2009-12-08 09:44:28 51°23.709 2°52.196 16.9818 0.055895 0.324685 -0.338911
2009-12-08 09:44:33 51°23.723 2°52.203 16.9774 0.055895 0.324685 -0.338911
2009-12-08 09:44:38 51°23.737 2°52.213 16.9842 0.055895 0.324735 -0.338911
2009-12-08 09:44:43 51°23.751 2°52.216 16.9827 0.055895 0.324692 -0.338911
2009-12-08 09:44:48 51°23.765 2°52.226 16.9849 0.055895 0.324729 -0.373735
2009-12-08 09:44:53 51°23.779 2°52.233 16.9871 0.055895 0.324698 -0.338911
2009-12-08 09:44:58 51°23.793 2°52.238 16.9839 0.055895 0.324685 -0.338911
2009-12-08 09:45:03 51°23.807 2°52.247 16.9864 0.055895 0.324685 -0.338911
2009-12-08 09:45:08 51°23.822 2°52.254 16.9873 0.055895 0.324704 -0.338911
2009-12-08 09:45:13 51°23.835 2°52.261 16.9855 0.055895 0.324667 -0.373735
2009-12-08 09:45:18 51°23.848 2°52.271 16.9887 0.055895 0.324717 -0.338911
2009-12-08 09:45:22 51°23.86 2°52.275 16.9889 0.055895 0.32466 -0.373735
2009-12-08 09:45:28 51°23.876 2°52.282 16.9868 0.055895 0.324667 -0.338911
2009-12-08 09:45:33 51°23.89 2°52.29 16.9906 0.055895 0.324667 -0.338911
2009-12-08 09:45:38 51°23.904 2°52.295 16.9928 0.055895 0.32466 -0.373735
2009-12-08 09:45:43 51°23.918 2°52.303 16.992 0.055895 0.324654 -0.338911
2009-12-08 09:45:48 51°23.932 2°52.31 16.9915 0.055895 0.32466 -0.338911
2009-12-08 09:45:53 51°23.947 2°52.318 16.992 0.055895 0.324648 -0.338911
2009-12-08 09:45:58 51°23.961 2°52.324 16.994 0.055895 0.324648 -0.338911
2009-12-08 09:46:03 51°23.975 2°52.332 16.9951 0.055895 0.324648 -0.338911
2009-12-08 09:46:08 51°23.989 2°52.34 16.9971 0.055895 0.324667 -0.373735
2009-12-08 09:46:13 51°24.003 2°52.348 16.9977 0.055895 0.324642 -0.338911
2009-12-08 09:46:18 51°24.016 2°52.358 16.998 0.055895 0.324654 -0.373735
2009-12-08 09:46:23 51°24.03 2°52.366 17 0.055895 0.32466 -0.338911
2009-12-08 09:46:29 51°24.047 2°52.378 17.0007 0.055895 0.324642 -0.338911
2009-12-08 09:46:33 51°24.057 2°52.387 17.0012 0.055895 0.324642 -0.338911
2009-12-08 09:46:38 51°24.07 2°52.398 17.0034 0.055895 0.32466 -0.338911
2009-12-08 09:46:43 51°24.084 2°52.407 17.0043 0.055895 0.324648 -0.338911
2009-12-08 09:46:48 51°24.096 2°52.418 17.0002 0.055895 0.324648 -0.338911
2009-12-08 09:46:53 51°24.109 2°52.43 17.0052 0.055895 0.324673 -0.373735
2009-12-08 09:46:58 51°24.124 2°52.437 17.0059 0.055895 0.324636 -0.338911
2009-12-08 09:47:03 51°24.137 2°52.447 17.0062 0.055895 0.324636 -0.338911
2009-12-08 09:47:08 51°24.151 2°52.455 17.0078 0.055895 0.324673 -0.338911
2009-12-08 09:47:13 51°24.165 2°52.461 17.0065 0.055895 0.324654 -0.338911
2009-12-08 09:47:18 51°24.179 2°52.469 17.0079 0.055895 0.324673 -0.373735
2009-12-08 09:47:23 51°24.193 2°52.473 17.0102 0.055895 0.324673 -0.338911
2009-12-08 09:47:28 51°24.207 2°52.476 17.0109 0.055895 0.324685 -0.338911
2009-12-08 09:47:33 51°24.222 2°52.48 17.0115 0.055895 0.324685 -0.338911
2009-12-08 09:47:38 51°24.237 2°52.48 17.0104 0.055895 0.324679 -0.373735
2009-12-08 09:47:43 51°24.251 2°52.484 17.0119 0.055895 0.324679 -0.338911
2009-12-08 09:47:48 51°24.265 2°52.486 17.0142 0.055895 0.324679 -0.373735
2009-12-08 09:47:53 51°24.28 2°52.486 17.0149 0.055895 0.32466 -0.338911
2009-12-08 09:47:58 51°24.294 2°52.487 17.0163 0.055895 0.324667 -0.338911
2009-12-08 09:48:02 51°24.306 2°52.488 17.0169 0.055895 0.324667 -0.338911
2009-12-08 09:48:08 51°24.324 2°52.486 17.018 0.055895 0.324648 -0.338911
2009-12-08 09:48:13 51°24.338 2°52.489 17.0184 0.055895 0.324648 -0.338911
2009-12-08 09:48:18 51°24.353 2°52.488 17.0189 0.055895 0.32466 -0.373735
2009-12-08 09:48:23 51°24.367 2°52.488 17.0197 0.055895 0.324654 -0.373735
2009-12-08 09:48:28 51°24.382 2°52.488 17.0177 0.055895 0.324654 -0.338911
2009-12-08 09:48:33 51°24.397 2°52.487 17.0203 0.055895 0.324654 -0.338911
2009-12-08 09:48:38 51°24.411 2°52.489 17.0196 0.055895 0.324648 -0.338911
2009-12-08 09:48:43 51°24.425 2°52.489 17.0216 0.055895 0.324648 -0.338911
2009-12-08 09:48:48 51°24.44 2°52.49 17.0232 0.055895 0.324642 -0.373735
2009-12-08 09:48:53 51°24.454 2°52.491 17.0235 0.055895 0.324648 -0.373735
2009-12-08 09:48:58 51°24.469 2°52.493 17.0239 0.055895 0.324654 -0.338911
2009-12-08 09:49:02 51°24.48 2°52.494 17.0226 0.055895 0.324654 -0.338911
2009-12-08 09:49:08 51°24.498 2°52.496 17.0257 0.055895 0.324648 -0.338911
2009-12-08 09:49:13 51°24.513 2°52.498 17.0263 0.055895 0.324648 -0.338911
2009-12-08 09:49:18 51°24.527 2°52.5 17.0277 0.055895 0.324667 -0.373735
2009-12-08 09:49:23 51°24.542 2°52.5 17.0285 0.055895 0.324654 -0.373735
2009-12-08 09:49:28 51°24.556 2°52.505 17.0297 0.055895 0.324667 -0.338911
2009-12-08 09:49:33 51°24.57 2°52.505 17.0309 0.055895 0.324648 -0.373735
2009-12-08 09:49:38 51°24.585 2°52.508 17.0302 0.055895 0.324648 -0.373735
2009-12-08 09:49:43 51°24.6 2°52.512 17.0308 0.055895 0.324667 -0.338911
2009-12-08 09:49:48 51°24.614 2°52.513 17.0321 0.055895 0.324648 -0.373735
2009-12-08 09:49:53 51°24.628 2°52.516 17.033 0.055895 0.324667 -0.373735
2009-12-08 09:49:58 51°24.643 2°52.518 17.0318 0.055895 0.324648 -0.338911
2009-12-08 09:50:02 51°24.654 2°52.52 17.0312 0.055895 0.324648 -0.338911
2009-12-08 09:50:08 51°24.672 2°52.525 17.0347 0.055895 0.32466 -0.338911
2009-12-08 09:50:13 51°24.686 2°52.525 17.0279 0.055895 0.324642 -0.338911
2009-12-08 09:50:18 51°24.701 2°52.531 17.0359 0.055895 0.324667 -0.338911
2009-12-08 09:50:23 51°24.715 2°52.531 17.0353 0.055895 0.324648 -0.338911
2009-12-08 09:50:28 51°24.729 2°52.536 17.0386 0.055895 0.324667 -0.373735
2009-12-08 09:50:33 51°24.744 2°52.536 17.0388 0.055895 0.324667 -0.373735
2009-12-08 09:50:38 51°24.758 2°52.54 17.0404 0.055895 0.324654 -0.373735
2009-12-08 09:50:43 51°24.772 2°52.542 17.0417 0.055895 0.324667 -0.338911
2009-12-08 09:50:48 51°24.787 2°52.545 17.0424 0.055895 0.32466 -0.338911
2009-12-08 09:50:53 51°24.801 2°52.547 17.0438 0.055895 0.324673 -0.373735
2009-12-08 09:50:58 51°24.816 2°52.549 17.0453 0.055895 0.324654 -0.338911
2009-12-08 09:51:03 51°24.831 2°52.552 17.0457 0.055895 0.324654 -0.338911
2009-12-08 09:51:08 51°24.846 2°52.555 17.047 0.055895 0.324679 -0.338911
2009-12-08 09:51:13 51°24.86 2°52.557 17.0448 0.055895 0.32466 -0.338911
2009-12-08 09:51:18 51°24.875 2°52.561 17.0481 0.055895 0.324673 -0.338911
2009-12-08 09:51:23 51°24.889 2°52.561 17.0491 0.055895 0.324654 -0.338911
2009-12-08 09:51:28 51°24.904 2°52.565 17.0492 0.055895 0.324654 -0.373735
2009-12-08 09:51:33 51°24.918 2°52.566 17.05 0.055895 0.324654 -0.373735
2009-12-08 09:51:38 51°24.933 2°52.569 17.0518 0.055895 0.32466 -0.373735
2009-12-08 09:51:43 51°24.948 2°52.571 17.0512 0.055895 0.324642 -0.338911
2009-12-08 09:51:48 51°24.962 2°52.574 17.0527 0.055895 0.324648 -0.338911
2009-12-08 09:51:53 51°24.977 2°52.576 17.0546 0.055895 0.324648 -0.338911
2009-12-08 09:51:58 51°24.992 2°52.578 17.0545 0.055895 0.324648 -0.338911
2009-12-08 09:52:03 51°25.006 2°52.583 17.0558 0.055895 0.324648 -0.338911
2009-12-08 09:52:08 51°25.021 2°52.582 17.057 0.055895 0.324654 -0.373735
2009-12-08 09:52:13 51°25.035 2°52.587 17.0581 0.055895 0.324636 -0.338911
2009-12-08 09:52:18 51°25.049 2°52.589 17.0594 0.055895 0.324673 -0.373735
2009-12-08 09:52:23 51°25.064 2°52.59 17.0604 0.055895 0.32466 -0.373735
2009-12-08 09:52:28 51°25.078 2°52.592 17.0621 0.055895 0.324654 -0.338911
2009-12-08 09:52:33 51°25.093 2°52.593 17.0631 0.055895 0.324654 -0.338911
2009-12-08 09:52:38 51°25.107 2°52.596 17.0638 0.055895 0.324648 -0.338911
2009-12-08 09:52:43 51°25.122 2°52.6 17.0653 0.055895 0.324648 -0.338911
2009-12-08 09:52:48 51°25.137 2°52.601 17.0656 0.055895 0.324654 -0.338911
2009-12-08 09:52:53 51°25.151 2°52.607 17.0667 0.055895 0.324654 -0.373735
2009-12-08 09:52:58 51°25.166 2°52.607 17.0677 0.055895 0.324642 -0.338911
2009-12-08 09:53:03 51°25.18 2°52.613 17.0682 0.055895 0.324642 -0.338911
2009-12-08 09:53:08 51°25.194 2°52.614 17.0693 0.055895 0.324667 -0.338911
2009-12-08 09:53:13 51°25.209 2°52.619 17.0703 0.055895 0.324667 -0.338911
2009-12-08 09:53:18 51°25.224 2°52.621 17.0703 0.055895 0.324673 -0.373735
2009-12-08 09:53:23 51°25.238 2°52.624 17.0714 0.055895 0.324667 -0.338911
2009-12-08 09:53:29 51°25.256 2°52.629 17.0731 0.055895 0.324667 -0.338911
2009-12-08 09:53:33 51°25.268 2°52.629 17.0742 0.055895 0.324673 -0.338911
2009-12-08 09:53:38 51°25.282 2°52.635 17.0748 0.055895 0.324673 -0.338911
2009-12-08 09:53:43 51°25.297 2°52.635 17.0742 0.055895 0.32466 -0.338911
2009-12-08 09:53:48 51°25.311 2°52.641 17.077 0.055895 0.324667 -0.338911
2009-12-08 09:53:53 51°25.326 2°52.642 17.0782 0.055895 0.324648 -0.338911
2009-12-08 09:53:58 51°25.34 2°52.646 17.0789 0.055895 0.324673 -0.338911
2009-12-08 09:54:03 51°25.354 2°52.649 17.08 0.055895 0.324673 -0.338911
2009-12-08 09:54:08 51°25.369 2°52.652 17.0806 0.055895 0.324667 -0.373735
2009-12-08 09:54:13 51°25.383 2°52.655 17.0814 0.055895 0.324667 -0.338911
2009-12-08 09:54:18 51°25.398 2°52.661 17.0808 0.055895 0.324667 -0.373735
2009-12-08 09:54:23 51°25.412 2°52.665 17.0838 0.055895 0.324692 -0.338911
2009-12-08 09:54:28 51°25.426 2°52.667 17.0842 0.055895 0.324685 -0.338911
2009-12-08 09:54:33 51°25.44 2°52.672 17.085 0.055895 0.324685 -0.338911
2009-12-08 09:54:38 51°25.455 2°52.676 17.0849 0.055895 0.324679 -0.338911
2009-12-08 09:54:43 51°25.469 2°52.68 17.0873 0.055895 0.324685 -0.338911
2009-12-08 09:54:48 51°25.483 2°52.682 17.087 0.055895 0.324673 -0.338911
2009-12-08 09:54:53 51°25.498 2°52.687 17.0891 0.055895 0.324679 -0.338911
2009-12-08 09:54:58 51°25.512 2°52.691 17.0898 0.055895 0.324673 -0.373735
2009-12-08 09:55:03 51°25.525 2°52.695 17.0897 0.055895 0.324673 -0.338911
2009-12-08 09:55:08 51°25.54 2°52.7 17.0911 0.055895 0.324673 -0.338911
2009-12-08 09:55:13 51°25.554 2°52.703 17.0925 0.055895 0.324667 -0.373735
2009-12-08 09:55:18 51°25.568 2°52.708 17.0934 0.055895 0.324679 -0.338911
2009-12-08 09:55:23 51°25.582 2°52.71 17.0936 0.055895 0.324673 -0.338911
2009-12-08 09:55:29 51°25.599 2°52.716 17.0944 0.055895 0.324685 -0.338911
2009-12-08 09:55:33 51°25.611 2°52.718 17.0948 0.055895 0.324685 -0.338911
2009-12-08 09:55:38 51°25.625 2°52.722 17.0955 0.055895 0.324679 -0.338911
2009-12-08 09:55:43 51°25.64 2°52.727 17.0966 0.055895 0.324698 -0.338911
2009-12-08 09:55:48 51°25.654 2°52.728 17.0949 0.055895 0.32466 -0.338911
2009-12-08 09:55:53 51°25.668 2°52.735 17.099 0.055895 0.324679 -0.373735
2009-12-08 09:55:58 51°25.682 2°52.738 17.0992 0.055895 0.324679 -0.338911
2009-12-08 09:56:03 51°25.696 2°52.743 17.101 0.055895 0.324679 -0.338911
2009-12-08 09:56:08 51°25.711 2°52.744 17.1017 0.055895 0.324667 -0.338911
2009-12-08 09:56:13 51°25.725 2°52.751 17.1028 0.055895 0.324673 -0.338911
2009-12-08 09:56:18 51°25.74 2°52.752 17.1038 0.055895 0.324667 -0.338911
2009-12-08 09:56:23 51°25.754 2°52.758 17.1049 0.055895 0.324673 -0.338911
2009-12-08 09:56:28 51°25.768 2°52.76 17.1058 0.055895 0.324673 -0.338911
2009-12-08 09:56:33 51°25.783 2°52.764 17.1084 0.055895 0.324673 -0.338911
2009-12-08 09:56:38 51°25.797 2°52.769 17.1087 0.055895 0.324667 -0.338911
2009-12-08 09:56:43 51°25.812 2°52.772 17.109 0.055895 0.324673 -0.373735
2009-12-08 09:56:48 51°25.827 2°52.776 17.1109 0.055895 0.324667 -0.338911
2009-12-08 09:56:53 51°25.841 2°52.781 17.1117 0.055895 0.324673 -0.338911
2009-12-08 09:56:58 51°25.856 2°52.784 17.1121 0.055895 0.32466 -0.373735
2009-12-08 09:57:03 51°25.87 2°52.79 17.1137 0.055895 0.32466 -0.373735
2009-12-08 09:57:08 51°25.884 2°52.794 17.1143 0.055895 0.324654 -0.338911
2009-12-08 09:57:13 51°25.899 2°52.797 17.1151 0.055895 0.324667 -0.338911
2009-12-08 09:57:18 51°25.913 2°52.801 17.1155 0.055895 0.32466 -0.338911
2009-12-08 09:57:23 51°25.927 2°52.805 17.1175 0.055895 0.324667 -0.338911
2009-12-08 09:57:29 51°25.945 2°52.812 17.1172 0.055895 0.32466 -0.338911
2009-12-08 09:57:33 51°25.956 2°52.812 17.118 0.055895 0.32466 -0.338911
2009-12-08 09:57:38 51°25.97 2°52.819 17.1181 0.055895 0.324667 -0.338911
2009-12-08 09:57:43 51°25.984 2°52.82 17.1195 0.055895 0.324667 -0.338911
2009-12-08 09:57:48 51°25.998 2°52.828 17.1203 0.055895 0.324685 -0.373735
2009-12-08 09:57:53 51°26.012 2°52.83 17.1209 0.055895 0.324673 -0.338911
2009-12-08 09:57:58 51°26.026 2°52.834 17.122 0.055895 0.324679 -0.373735
2009-12-08 09:58:03 51°26.04 2°52.841 17.1222 0.055895 0.324679 -0.373735
2009-12-08 09:58:08 51°26.054 2°52.842 17.1252 0.055895 0.324667 -0.338911
2009-12-08 09:58:13 51°26.068 2°52.849 17.1249 0.055895 0.324667 -0.373735
2009-12-08 09:58:18 51°26.082 2°52.85 17.1265 0.055895 0.324685 -0.338911
2009-12-08 09:58:23 51°26.096 2°52.854 17.1274 0.055895 0.324685 -0.338911
2009-12-08 09:58:28 51°26.11 2°52.858 17.1277 0.055895 0.324704 -0.338911
2009-12-08 09:58:33 51°26.125 2°52.86 17.1299 0.055895 0.324704 -0.338911
2009-12-08 09:58:38 51°26.139 2°52.863 17.131 0.055895 0.324692 -0.338911
2009-12-08 09:58:43 51°26.154 2°52.867 17.1303 0.055895 0.324704 -0.338911
2009-12-08 09:58:48 51°26.168 2°52.869 17.1325 0.055895 0.324685 -0.338911
2009-12-08 09:58:53 51°26.182 2°52.875 17.1321 0.055895 0.324698 -0.338911
2009-12-08 09:58:58 51°26.197 2°52.875 17.1322 0.055895 0.32466 -0.338911
2009-12-08 09:59:03 51°26.211 2°52.882 17.1337 0.055895 0.32466 -0.338911
2009-12-08 09:59:08 51°26.226 2°52.883 17.135 0.055895 0.324673 -0.338911
2009-12-08 09:59:13 51°26.24 2°52.888 17.1343 0.055895 0.32466 -0.338911
2009-12-08 09:59:18 51°26.255 2°52.891 17.1348 0.055895 0.324667 -0.338911
2009-12-08 09:59:23 51°26.269 2°52.894 17.1375 0.055895 0.324679 -0.338911
2009-12-08 09:59:28 51°26.283 2°52.899 17.1376 0.055895 0.324679 -0.373735
2009-12-08 09:59:33 51°26.298 2°52.902 17.1389 0.055895 0.324679 -0.373735
2009-12-08 09:59:38 51°26.313 2°52.905 17.1405 0.055895 0.324667 -0.338911
2009-12-08 09:59:43 51°26.327 2°52.91 17.1412 0.055895 0.324667 -0.338911
2009-12-08 09:59:48 51°26.341 2°52.914 17.1419 0.055895 0.324673 -0.338911
2009-12-08 09:59:53 51°26.356 2°52.916 17.1437 0.055895 0.32466 -0.338911
2009-12-08 09:59:58 51°26.37 2°52.922 17.1439 0.055895 0.324685 -0.338911
2009-12-08 10:00:03 51°26.385 2°52.924 17.1447 0.055895 0.324685 -0.338911
2009-12-08 10:00:08 51°26.399 2°52.928 17.1466 0.055895 0.32466 -0.373735
2009-12-08 10:00:13 51°26.413 2°52.932 17.1441 0.055895 0.324679 -0.338911
2009-12-08 10:00:18 51°26.427 2°52.934 17.1487 0.055895 0.324654 -0.338911
2009-12-08 10:00:23 51°26.441 2°52.94 17.1474 0.055895 0.324667 -0.373735
2009-12-08 10:00:28 51°26.455 2°52.944 17.1468 0.055895 0.324679 -0.338911
2009-12-08 10:00:33 51°26.469 2°52.947 17.1495 0.055895 0.324679 -0.338911